Observation data for Adrian on 11/14/2019      Previous  Date  Next       Current Mesonet Observations  Soil Data  Daily Summary Page  Observations in Plain Language
KAD1 140600Z 08007KT 02/M06 A3018 RMK A01 T00211064  RH  053%=      5-min Rain = 0
KAD1 140601Z 07007KT 02/M06 A3018 RMK A01 T00211064  RH  053%=      5-min Rain = 0
KAD1 140602Z 07008KT 02/M06 A3018 RMK A01 T00201064  RH  054%=      5-min Rain = 0
KAD1 140603Z 07008KT 02/M06 A3018 RMK A01 T00201064  RH  054%=      5-min Rain = 0
KAD1 140604Z 07008KT 02/M06 A3018 RMK A01 T00201064  RH  054%=      5-min Rain = 0
KAD1 140605Z 07008KT 02/M06 A3018 RMK A01 T00201063  RH  054%=      5-min Rain = 0
KAD1 140606Z 07008KT 02/M06 A3018 RMK A01 T00201064  RH  054%=      5-min Rain = 0
KAD1 140607Z 07007KT 02/M06 A3018 RMK A01 T00201063  RH  054%=      5-min Rain = 0
KAD1 140608Z 07007KT 02/M06 A3018 RMK A01 T00191064  RH  054%=      5-min Rain = 0
KAD1 140609Z 08007KT 02/M06 A3018 RMK A01 T00191063  RH  054%=      5-min Rain = 0
KAD1 140610Z 08007KT 02/M06 A3018 RMK A01 T00191063  RH  054%=      5-min Rain = 0
KAD1 140611Z 08007KT 02/M06 A3018 RMK A01 T00201062  RH  054%=      5-min Rain = 0
KAD1 140612Z 08007KT 02/M06 A3018 RMK A01 T00221062  RH  054%=      5-min Rain = 0
KAD1 140613Z 08007KT 02/M06 A3018 RMK A01 T00221063  RH  054%=      5-min Rain = 0
KAD1 140614Z 08007KT 02/M06 A3018 RMK A01 T00221063  RH  053%=      5-min Rain = 0
KAD1 140615Z 08006KT 02/M06 A3018 RMK A01 T00221063  RH  053%=      5-min Rain = 0
KAD1 140616Z 08006KT 02/M06 A3018 RMK A01 T00211064  RH  053%=      5-min Rain = 0
KAD1 140617Z 09006KT 02/M06 A3018 RMK A01 T00211064  RH  053%=      5-min Rain = 0
KAD1 140618Z 09006KT 02/M07 A3018 RMK A01 T00201065  RH  053%=      5-min Rain = 0
KAD1 140619Z 09006KT 02/M07 A3018 RMK A01 T00191065  RH  054%=      5-min Rain = 0
KAD1 140620Z 09006KT 02/M07 A3018 RMK A01 T00191065  RH  054%=      5-min Rain = 0
KAD1 140621Z 09006KT 02/M07 A3018 RMK A01 T00191065  RH  054%=      5-min Rain = 0
KAD1 140622Z 09006KT 02/M07 A3018 RMK A01 T00191065  RH  054%=      5-min Rain = 0
KAD1 140623Z 09006KT 02/M07 A3018 RMK A01 T00191066  RH  054%=      5-min Rain = 0
KAD1 140624Z 09006KT 02/M07 A3018 RMK A01 T00181066  RH  054%=      5-min Rain = 0
KAD1 140625Z 09006KT 02/M07 A3018 RMK A01 T00181065  RH  054%=      5-min Rain = 0
KAD1 140626Z 09006KT 02/M07 A3018 RMK A01 T00181065  RH  054%=      5-min Rain = 0
KAD1 140627Z 09006KT 02/M07 A3019 RMK A01 T00181066  RH  054%=      5-min Rain = 0
KAD1 140628Z 09006KT 02/M07 A3019 RMK A01 T00181066  RH  054%=      5-min Rain = 0
KAD1 140629Z 08007KT 02/M07 A3019 RMK A01 T00181065  RH  054%=      5-min Rain = 0
KAD1 140630Z 08007KT 02/M07 A3019 RMK A01 T00181065  RH  054%=      5-min Rain = 0
KAD1 140631Z 08007KT 02/M07 A3019 RMK A01 T00181065  RH  054%=      5-min Rain = 0
KAD1 140632Z 08007KT 02/M07 A3019 RMK A01 T00181065  RH  054%=      5-min Rain = 0
KAD1 140633Z 08007KT 02/M06 A3019 RMK A01 T00181064  RH  054%=      5-min Rain = 0
KAD1 140634Z 08006KT 02/M06 A3019 RMK A01 T00181064  RH  055%=      5-min Rain = 0
KAD1 140635Z 08006KT 02/M06 A3019 RMK A01 T00171064  RH  055%=      5-min Rain = 0
KAD1 140636Z 08006KT 02/M06 A3019 RMK A01 T00181064  RH  055%=      5-min Rain = 0
KAD1 140637Z 09006KT 02/M06 A3019 RMK A01 T00191064  RH  054%=      5-min Rain = 0
KAD1 140638Z 09006KT 02/M06 A3019 RMK A01 T00191063  RH  054%=      5-min Rain = 0
KAD1 140639Z 09006KT 02/M06 A3019 RMK A01 T00201063  RH  054%=      5-min Rain = 0
KAD1 140640Z 08007KT 02/M06 A3019 RMK A01 T00201063  RH  054%=      5-min Rain = 0
KAD1 140641Z 08007KT 02/M06 A3019 RMK A01 T00211063  RH  054%=      5-min Rain = 0
KAD1 140642Z 08007KT 02/M06 A3019 RMK A01 T00211062  RH  054%=      5-min Rain = 0
KAD1 140643Z 07007KT 02/M06 A3019 RMK A01 T00221062  RH  054%=      5-min Rain = 0
KAD1 140644Z 07007KT 02/M06 A3019 RMK A01 T00231061  RH  054%=      5-min Rain = 0
KAD1 140645Z 07007KT 02/M06 A3019 RMK A01 T00221062  RH  054%=      5-min Rain = 0
KAD1 140646Z 06008KT 02/M06 A3019 RMK A01 T00211062  RH  054%=      5-min Rain = 0
KAD1 140647Z 06008KT 02/M06 A3019 RMK A01 T00201063  RH  054%=      5-min Rain = 0
KAD1 140648Z 06008KT 02/M06 A3019 RMK A01 T00181064  RH  055%=      5-min Rain = 0
KAD1 140649Z 06008KT 02/M06 A3019 RMK A01 T00171064  RH  055%=      5-min Rain = 0
KAD1 140650Z 06008KT 02/M06 A3019 RMK A01 T00171064  RH  055%=      5-min Rain = 0
KAD1 140651Z 06008KT 02/M06 A3019 RMK A01 T00171064  RH  055%=      5-min Rain = 0
KAD1 140652Z 06008KT 02/M06 A3019 RMK A01 T00161064  RH  055%=      5-min Rain = 0
KAD1 140653Z 05008KT 02/M06 A3019 RMK A01 T00171064  RH  055%=      5-min Rain = 0
KAD1 140654Z 05008KT 02/M07 A3019 RMK A01 T00171065  RH  055%=      5-min Rain = 0
KAD1 140655Z 05008KT 02/M06 A3019 RMK A01 T00161064  RH  055%=      5-min Rain = 0
KAD1 140656Z 05008KT 02/M06 A3019 RMK A01 T00161061  RH  057%=      5-min Rain = 0
KAD1 140657Z 06007KT 02/M06 A3019 RMK A01 T00151060  RH  057%=      5-min Rain = 0
KAD1 140658Z 06007KT 02/M06 A302 RMK A01 T00161057  RH  058%=      5-min Rain = 0
KAD1 140659Z 06006KT 02/M06 A302 RMK A01 T00161057  RH  059%=      5-min Rain = 0
KAD1 140700Z 06007KT 02/M06 A302 RMK A01 T00151056  RH  059%=      5-min Rain = 0
KAD1 140701Z 05007KT 02/M06 A302 RMK A01 T00151056  RH  059%=      5-min Rain = 0
KAD1 140702Z 05007KT 01/M06 A302 RMK A01 T00141056  RH  059%=      5-min Rain = 0
KAD1 140703Z 05006KT 01/M06 A302 RMK A01 T00141056  RH  059%=      5-min Rain = 0
KAD1 140704Z 05007KT 01/M06 A302 RMK A01 T00141057  RH  060%=      5-min Rain = 0
KAD1 140705Z 05006KT 01/M06 A302 RMK A01 T00141056  RH  060%=      5-min Rain = 0
KAD1 140706Z 05007KT 01/M06 A302 RMK A01 T00141056  RH  060%=      5-min Rain = 0
KAD1 140707Z 05007KT 02/M06 A302 RMK A01 T00151056  RH  059%=      5-min Rain = 0
KAD1 140708Z 05007KT 02/M06 A302 RMK A01 T00151055  RH  059%=      5-min Rain = 0
KAD1 140709Z 05007KT 01/M06 A302 RMK A01 T00141056  RH  060%=      5-min Rain = 0
KAD1 140710Z 05007KT 01/M06 A302 RMK A01 T00141055  RH  060%=      5-min Rain = 0
KAD1 140711Z 05007KT 01/M05 A302 RMK A01 T00131054  RH  061%=      5-min Rain = 0
KAD1 140712Z 05007KT 01/M05 A302 RMK A01 T00131054  RH  061%=      5-min Rain = 0
KAD1 140713Z 05007KT 01/M05 A302 RMK A01 T00131053  RH  061%=      5-min Rain = 0
KAD1 140714Z 04008KT 01/M05 A302 RMK A01 T00131053  RH  062%=      5-min Rain = 0
KAD1 140715Z 04008KT 01/M05 A302 RMK A01 T00131052  RH  062%=      5-min Rain = 0
KAD1 140716Z 04008KT 01/M05 A302 RMK A01 T00131051  RH  062%=      5-min Rain = 0
KAD1 140717Z 04008KT 01/M05 A302 RMK A01 T00141049  RH  063%=      5-min Rain = 0
KAD1 140718Z 04008KT 02/M05 A302 RMK A01 T00151047  RH  063%=      5-min Rain = 0
KAD1 140719Z 04008KT 02/M05 A302 RMK A01 T00161047  RH  063%=      5-min Rain = 0
KAD1 140720Z 04008KT 02/M05 A302 RMK A01 T00161047  RH  063%=      5-min Rain = 0
KAD1 140721Z 04008KT 02/M05 A302 RMK A01 T00161047  RH  063%=      5-min Rain = 0
KAD1 140722Z 04008KT 02/M05 A302 RMK A01 T00161047  RH  063%=      5-min Rain = 0
KAD1 140723Z 04008KT 02/M05 A302 RMK A01 T00161048  RH  062%=      5-min Rain = 0
KAD1 140724Z 04008KT 02/M05 A302 RMK A01 T00171048  RH  062%=      5-min Rain = 0
KAD1 140725Z 05008KT 02/M05 A302 RMK A01 T00161048  RH  062%=      5-min Rain = 0
KAD1 140726Z 04008KT 02/M05 A302 RMK A01 T00171048  RH  062%=      5-min Rain = 0
KAD1 140727Z 04008KT 02/M05 A302 RMK A01 T00171047  RH  062%=      5-min Rain = 0
KAD1 140728Z 04007KT 02/M05 A302 RMK A01 T00181047  RH  062%=      5-min Rain = 0
KAD1 140729Z 04007KT 02/M05 A302 RMK A01 T00181046  RH  062%=      5-min Rain = 0
KAD1 140730Z 04007KT 02/M05 A302 RMK A01 T00191047  RH  062%=      5-min Rain = 0
KAD1 140731Z 04007KT 02/M05 A302 RMK A01 T00191047  RH  062%=      5-min Rain = 0
KAD1 140732Z 04007KT 02/M05 A302 RMK A01 T00181047  RH  062%=      5-min Rain = 0
KAD1 140733Z 05006KT 02/M05 A302 RMK A01 T00171048  RH  062%=      5-min Rain = 0
KAD1 140734Z 05006KT 02/M05 A302 RMK A01 T00171048  RH  062%=      5-min Rain = 0
KAD1 140735Z 05006KT 02/M05 A302 RMK A01 T00171048  RH  062%=      5-min Rain = 0
KAD1 140736Z 05006KT 02/M05 A302 RMK A01 T00171048  RH  062%=      5-min Rain = 0
KAD1 140737Z 05006KT 02/M05 A302 RMK A01 T00181047  RH  062%=      5-min Rain = 0
KAD1 140738Z 05006KT 02/M05 A302 RMK A01 T00171048  RH  062%=      5-min Rain = 0
KAD1 140739Z 05006KT 02/M05 A302 RMK A01 T00171048  RH  062%=      5-min Rain = 0
KAD1 140740Z 05006KT 02/M05 A302 RMK A01 T00171048  RH  062%=      5-min Rain = 0
KAD1 140741Z 05006KT 02/M05 A302 RMK A01 T00171049  RH  062%=      5-min Rain = 0
KAD1 140742Z 05005KT 02/M05 A302 RMK A01 T00161049  RH  062%=      5-min Rain = 0
KAD1 140743Z 05005KT 02/M05 A302 RMK A01 T00161049  RH  062%=      5-min Rain = 0
KAD1 140744Z 05005KT 02/M05 A3021 RMK A01 T00161049  RH  062%=      5-min Rain = 0
KAD1 140745Z 05005KT 02/M05 A3021 RMK A01 T00161049  RH  062%=      5-min Rain = 0
KAD1 140746Z 06005KT 02/M05 A3021 RMK A01 T00171048  RH  062%=      5-min Rain = 0
KAD1 140747Z 06005KT 02/M05 A3021 RMK A01 T00171049  RH  062%=      5-min Rain = 0
KAD1 140748Z 06005KT 02/M05 A3021 RMK A01 T00161049  RH  062%=      5-min Rain = 0
KAD1 140749Z 06006KT 02/M05 A3021 RMK A01 T00161048  RH  062%=      5-min Rain = 0
KAD1 140750Z 05006KT 02/M05 A3021 RMK A01 T00171048  RH  062%=      5-min Rain = 0
KAD1 140751Z 05006KT 02/M05 A3021 RMK A01 T00181047  RH  062%=      5-min Rain = 0
KAD1 140752Z 05006KT 02/M05 A3021 RMK A01 T00181048  RH  061%=      5-min Rain = 0
KAD1 140753Z 04006KT 02/M05 A3021 RMK A01 T00191048  RH  061%=      5-min Rain = 0
KAD1 140754Z 04006KT 02/M05 A3021 RMK A01 T00191049  RH  061%=      5-min Rain = 0
KAD1 140755Z 04006KT 02/M05 A3021 RMK A01 T00181050  RH  061%=      5-min Rain = 0
KAD1 140756Z 04006KT 02/M05 A3021 RMK A01 T00181050  RH  061%=      5-min Rain = 0
KAD1 140757Z 04006KT 02/M05 A3021 RMK A01 T00171051  RH  061%=      5-min Rain = 0
KAD1 140758Z 03007KT 02/M05 A3021 RMK A01 T00171051  RH  061%=      5-min Rain = 0
KAD1 140759Z 03007KT 02/M05 A3021 RMK A01 T00161052  RH  061%=      5-min Rain = 0
KAD1 140800Z 03007KT 02/M05 A3021 RMK A01 T00151053  RH  061%=      5-min Rain = 0
KAD1 140801Z 03008KT 02/M05 A3021 RMK A01 T00151053  RH  061%=      5-min Rain = 0
KAD1 140802Z 03008KT 02/M05 A3021 RMK A01 T00161051  RH  061%=      5-min Rain = 0
KAD1 140803Z 03008KT 02/M05 A3021 RMK A01 T00161052  RH  060%=      5-min Rain = 0
KAD1 140804Z 03008KT 02/M05 A3021 RMK A01 T00161053  RH  060%=      5-min Rain = 0
KAD1 140805Z 03009KT 02/M05 A3021 RMK A01 T00171053  RH  060%=      5-min Rain = 0
KAD1 140806Z 03008KT 02/M05 A3021 RMK A01 T00181053  RH  059%=      5-min Rain = 0
KAD1 140807Z 03009KT 02/M05 A3021 RMK A01 T00181053  RH  059%=      5-min Rain = 0
KAD1 140808Z 03008KT 02/M05 A3021 RMK A01 T00191053  RH  059%=      5-min Rain = 0
KAD1 140809Z 03008KT 02/M05 A3021 RMK A01 T00201053  RH  059%=      5-min Rain = 0
KAD1 140810Z 03008KT 02/M05 A3021 RMK A01 T00191054  RH  058%=      5-min Rain = 0
KAD1 140811Z 04008KT 02/M06 A3021 RMK A01 T00171055  RH  059%=      5-min Rain = 0
KAD1 140812Z 04009KT 02/M05 A3021 RMK A01 T00171054  RH  059%=      5-min Rain = 0
KAD1 140813Z 04009KT 02/M05 A3021 RMK A01 T00161054  RH  060%=      5-min Rain = 0
KAD1 140814Z 04009KT 02/M05 A3021 RMK A01 T00151054  RH  060%=      5-min Rain = 0
KAD1 140815Z 04008KT 02/M06 A3021 RMK A01 T00151055  RH  060%=      5-min Rain = 0
KAD1 140816Z 04008KT 01/M06 A3021 RMK A01 T00131056  RH  060%=      5-min Rain = 0
KAD1 140817Z 04008KT 01/M06 A3021 RMK A01 T00111056  RH  061%=      5-min Rain = 0
KAD1 140818Z 04007KT 01/M06 A3022 RMK A01 T00101056  RH  061%=      5-min Rain = 0
KAD1 140819Z 04008KT 01/M06 A3022 RMK A01 T00101056  RH  062%=      5-min Rain = 0
KAD1 140820Z 03008KT 01/M06 A3022 RMK A01 T00091056  RH  062%=      5-min Rain = 0
KAD1 140821Z 04007KT 01/M06 A3022 RMK A01 T00081055  RH  062%=      5-min Rain = 0
KAD1 140822Z 03007KT 01/M06 A3022 RMK A01 T00071055  RH  063%=      5-min Rain = 0
KAD1 140823Z 03007KT 01/M05 A3022 RMK A01 T00071054  RH  063%=      5-min Rain = 0
KAD1 140824Z 03007KT 01/M06 A3022 RMK A01 T00061055  RH  064%=      5-min Rain = 0
KAD1 140825Z 03007KT 01/M06 A3022 RMK A01 T00061055  RH  064%=      5-min Rain = 0
KAD1 140826Z 03007KT 01/M06 A3022 RMK A01 T00051055  RH  064%=      5-min Rain = 0
KAD1 140827Z 03007KT 01/M05 A3022 RMK A01 T00061054  RH  064%=      5-min Rain = 0
KAD1 140828Z 03007KT 01/M05 A3022 RMK A01 T00051054  RH  064%=      5-min Rain = 0
KAD1 140829Z 03008KT 01/M05 A3022 RMK A01 T00061053  RH  064%=      5-min Rain = 0
KAD1 140830Z 03008KT 01/M05 A3022 RMK A01 T00071053  RH  064%=      5-min Rain = 0
KAD1 140831Z 03009KT 01/M05 A3022 RMK A01 T00081052  RH  064%=      5-min Rain = 0
KAD1 140832Z 03008KT 01/M05 A3022 RMK A01 T00091052  RH  064%=      5-min Rain = 0
KAD1 140833Z 03008KT 01/M05 A3022 RMK A01 T00101052  RH  063%=      5-min Rain = 0
KAD1 140834Z 03008KT 01/M05 A3022 RMK A01 T00111052  RH  063%=      5-min Rain = 0
KAD1 140835Z 03008KT 01/M05 A3022 RMK A01 T00111053  RH  063%=      5-min Rain = 0
KAD1 140836Z 03007KT 01/M05 A3022 RMK A01 T00111053  RH  062%=      5-min Rain = 0
KAD1 140837Z 03007KT 01/M05 A3022 RMK A01 T00121053  RH  062%=      5-min Rain = 0
KAD1 140838Z 03007KT 01/M05 A3022 RMK A01 T00111053  RH  062%=      5-min Rain = 0
KAD1 140839Z 03007KT 01/M05 A3022 RMK A01 T00111053  RH  062%=      5-min Rain = 0
KAD1 140840Z 03007KT 01/M05 A3022 RMK A01 T00101054  RH  062%=      5-min Rain = 0
KAD1 140841Z 03007KT 01/M05 A3022 RMK A01 T00091054  RH  063%=      5-min Rain = 0
KAD1 140842Z 03007KT 01/M05 A3022 RMK A01 T00081054  RH  063%=      5-min Rain = 0
KAD1 140843Z 03007KT 01/M06 A3022 RMK A01 T00071055  RH  063%=      5-min Rain = 0
KAD1 140844Z 03007KT 01/M06 A3022 RMK A01 T00061055  RH  064%=      5-min Rain = 0
KAD1 140845Z 04007KT 01/M05 A3022 RMK A01 T00061054  RH  064%=      5-min Rain = 0
KAD1 140846Z 04007KT 01/M05 A3022 RMK A01 T00051054  RH  064%=      5-min Rain = 0
KAD1 140847Z 04007KT 01/M05 A3022 RMK A01 T00051054  RH  065%=      5-min Rain = 0
KAD1 140848Z 04007KT 00/M06 A3022 RMK A01 T00041055  RH  065%=      5-min Rain = 0
KAD1 140849Z 04007KT 00/M06 A3022 RMK A01 T00031055  RH  065%=      5-min Rain = 0
KAD1 140850Z 04007KT 00/M06 A3022 RMK A01 T00021056  RH  065%=      5-min Rain = 0
KAD1 140851Z 04007KT 00/06 A3022 RMK A01 T00000-56  RH  066%=      5-min Rain = 0
KAD1 140852Z 04007KT 00/06 A3022 RMK A01 T00-00-55  RH  066%=      5-min Rain = 0
KAD1 140853Z 04008KT 00/06 A3022 RMK A01 T00-00-55  RH  067%=      5-min Rain = 0
KAD1 140854Z 05007KT M00/M06 A3022 RMK A01 T10011055  RH  067%=      5-min Rain = 0
KAD1 140855Z 04008KT M00/M06 A3022 RMK A01 T10011055  RH  067%=      5-min Rain = 0
KAD1 140856Z 04008KT M00/M05 A3022 RMK A01 T10011054  RH  067%=      5-min Rain = 0
KAD1 140857Z 04008KT M00/M06 A3022 RMK A01 T10011055  RH  067%=      5-min Rain = 0
KAD1 140858Z 04008KT M00/M06 A3023 RMK A01 T10021055  RH  068%=      5-min Rain = 0
KAD1 140859Z 04008KT M00/M06 A3023 RMK A01 T10031055  RH  068%=      5-min Rain = 0
KAD1 140900Z 04008KT M00/M06 A3023 RMK A01 T10031055  RH  068%=      5-min Rain = 0
KAD1 140901Z 04007KT M00/M06 A3023 RMK A01 T10031055  RH  068%=      5-min Rain = 0
KAD1 140902Z 04007KT M00/M05 A3023 RMK A01 T10031054  RH  068%=      5-min Rain = 0
KAD1 140903Z 04007KT M00/M05 A3023 RMK A01 T10021054  RH  068%=      5-min Rain = 0
KAD1 140904Z 04007KT M00/M05 A3023 RMK A01 T10021053  RH  068%=      5-min Rain = 0
KAD1 140905Z 04007KT M00/M05 A3023 RMK A01 T10021054  RH  068%=      5-min Rain = 0
KAD1 140906Z 04007KT M00/M06 A3023 RMK A01 T10041055  RH  068%=      5-min Rain = 0
KAD1 140907Z 05007KT M01/M06 A3023 RMK A01 T10051056  RH  068%=      5-min Rain = 0
KAD1 140908Z 05007KT M01/M06 A3023 RMK A01 T10071056  RH  069%=      5-min Rain = 0
KAD1 140909Z 05007KT M01/M06 A3023 RMK A01 T10071056  RH  070%=      5-min Rain = 0
KAD1 140910Z 05007KT M01/M06 A3023 RMK A01 T10081056  RH  070%=      5-min Rain = 0
KAD1 140911Z 05007KT M01/M06 A3023 RMK A01 T10081056  RH  070%=      5-min Rain = 0
KAD1 140912Z 05007KT M01/M06 A3023 RMK A01 T10091057  RH  070%=      5-min Rain = 0
KAD1 140913Z 05007KT M01/M06 A3023 RMK A01 T10101058  RH  070%=      5-min Rain = 0
KAD1 140914Z 05008KT M01/M06 A3023 RMK A01 T10111058  RH  070%=      5-min Rain = 0
KAD1 140915Z 05008KT M01/M06 A3023 RMK A01 T10121058  RH  071%=      5-min Rain = 0
KAD1 140916Z 05008KT M01/M06 A3023 RMK A01 T10121058  RH  071%=      5-min Rain = 0
KAD1 140917Z 05008KT M01/M06 A3023 RMK A01 T10131058  RH  071%=      5-min Rain = 0
KAD1 140918Z 04008KT M01/M06 A3023 RMK A01 T10131058  RH  071%=      5-min Rain = 0
KAD1 140919Z 04009KT M01/M06 A3023 RMK A01 T10131058  RH  072%=      5-min Rain = 0
KAD1 140920Z 04008KT M01/M06 A3023 RMK A01 T10131058  RH  072%=      5-min Rain = 0
KAD1 140921Z 04008KT M01/M06 A3023 RMK A01 T10141058  RH  072%=      5-min Rain = 0
KAD1 140922Z 04008KT M01/M06 A3023 RMK A01 T10141057  RH  072%=      5-min Rain = 0
KAD1 140923Z 04009KT M01/M06 A3023 RMK A01 T10131056  RH  073%=      5-min Rain = 0
KAD1 140924Z 04008KT M01/M05 A3023 RMK A01 T10111054  RH  073%=      5-min Rain = 0
KAD1 140925Z 04009KT M01/M05 A3023 RMK A01 T10101054  RH  072%=      5-min Rain = 0
KAD1 140926Z 04009KT M01/M05 A3023 RMK A01 T10091054  RH  072%=      5-min Rain = 0
KAD1 140927Z 04009KT M01/M05 A3023 RMK A01 T10081054  RH  071%=      5-min Rain = 0
KAD1 140928Z 04009KT M01/M05 A3023 RMK A01 T10081054  RH  071%=      5-min Rain = 0
KAD1 140929Z 05009KT M01/M05 A3023 RMK A01 T10071054  RH  070%=      5-min Rain = 0
KAD1 140930Z 05009KT M01/M05 A3023 RMK A01 T10071054  RH  070%=      5-min Rain = 0
KAD1 140931Z 05008KT M01/M05 A3023 RMK A01 T10071054  RH  070%=      5-min Rain = 0
KAD1 140932Z 05007KT M01/M06 A3023 RMK A01 T10081055  RH  070%=      5-min Rain = 0
KAD1 140933Z 05007KT M01/M06 A3023 RMK A01 T10081055  RH  071%=      5-min Rain = 0
KAD1 140934Z 05007KT M01/M06 A3023 RMK A01 T10091055  RH  071%=      5-min Rain = 0
KAD1 140935Z 05007KT M01/M06 A3023 RMK A01 T10091055  RH  071%=      5-min Rain = 0
KAD1 140936Z 05007KT M01/M06 A3023 RMK A01 T10101056  RH  071%=      5-min Rain = 0
KAD1 140937Z 05006KT M01/M06 A3023 RMK A01 T10111056  RH  072%=      5-min Rain = 0
KAD1 140938Z 05006KT M01/M06 A3023 RMK A01 T10121056  RH  072%=      5-min Rain = 0
KAD1 140939Z 05006KT M01/M06 A3023 RMK A01 T10121056  RH  072%=      5-min Rain = 0
KAD1 140940Z 05007KT M01/M06 A3023 RMK A01 T10121056  RH  072%=      5-min Rain = 0
KAD1 140941Z 05007KT M01/M06 A3023 RMK A01 T10121056  RH  072%=      5-min Rain = 0
KAD1 140942Z 05007KT M01/M06 A3023 RMK A01 T10121056  RH  072%=      5-min Rain = 0
KAD1 140943Z 05007KT M01/M06 A3023 RMK A01 T10121055  RH  072%=      5-min Rain = 0
KAD1 140944Z 05007KT M01/M06 A3023 RMK A01 T10121056  RH  072%=      5-min Rain = 0
KAD1 140945Z 05007KT M01/M06 A3023 RMK A01 T10121055  RH  072%=      5-min Rain = 0
KAD1 140946Z 05008KT M01/M06 A3023 RMK A01 T10121055  RH  072%=      5-min Rain = 0
KAD1 140947Z 05008KT M01/M06 A3023 RMK A01 T10121056  RH  072%=      5-min Rain = 0
KAD1 140948Z 06007KT M01/M06 A3023 RMK A01 T10131056  RH  073%=      5-min Rain = 0
KAD1 140949Z 05007KT M01/M06 A3023 RMK A01 T10141056  RH  073%=      5-min Rain = 0
KAD1 140950Z 05007KT M02/M06 A3024 RMK A01 T10151055  RH  074%=      5-min Rain = 0
KAD1 140951Z 05007KT M02/M06 A3024 RMK A01 T10151055  RH  074%=      5-min Rain = 0
KAD1 140952Z 05007KT M02/M06 A3024 RMK A01 T10151055  RH  075%=      5-min Rain = 0
KAD1 140953Z 06008KT M02/M05 A3024 RMK A01 T10151054  RH  075%=      5-min Rain = 0
KAD1 140954Z 06007KT M02/M05 A3024 RMK A01 T10161054  RH  075%=      5-min Rain = 0
KAD1 140955Z 06007KT M02/M05 A3024 RMK A01 T10161053  RH  076%=      5-min Rain = 0
KAD1 140956Z 06007KT M02/M05 A3024 RMK A01 T10161053  RH  076%=      5-min Rain = 0
KAD1 140957Z 06008KT M02/M05 A3024 RMK A01 T10161052  RH  076%=      5-min Rain = 0
KAD1 140958Z 06008KT M02/M05 A3024 RMK A01 T10161052  RH  076%=      5-min Rain = 0
KAD1 140959Z 06008KT M02/M05 A3024 RMK A01 T10151052  RH  076%=      5-min Rain = 0
KAD1 141000Z 05008KT M02/M05 A3024 RMK A01 T10161052  RH  076%=      5-min Rain = 0
KAD1 141001Z 05008KT M02/M05 A3024 RMK A01 T10161052  RH  076%=      5-min Rain = 0
KAD1 141002Z 05009KT M02/M05 A3024 RMK A01 T10151051  RH  077%=      5-min Rain = 0
KAD1 141003Z 05009KT M02/M05 A3024 RMK A01 T10151050  RH  077%=      5-min Rain = 0
KAD1 141004Z 05009KT M01/M05 A3024 RMK A01 T10141050  RH  077%=      5-min Rain = 0
KAD1 141005Z 05010KT M01/M05 A3024 RMK A01 T10141049  RH  077%=      5-min Rain = 0
KAD1 141006Z 05010KT M01/M05 A3024 RMK A01 T10121047  RH  077%=      5-min Rain = 0
KAD1 141007Z 05010KT M01/M05 A3024 RMK A01 T10111046  RH  077%=      5-min Rain = 0
KAD1 141008Z 05010KT M01/M05 A3024 RMK A01 T10101046  RH  076%=      5-min Rain = 0
KAD1 141009Z 05010KT M01/M05 A3024 RMK A01 T10081045  RH  076%=      5-min Rain = 0
KAD1 141010Z 05009KT M01/M05 A3024 RMK A01 T10081046  RH  075%=      5-min Rain = 0
KAD1 141011Z 05009KT M01/M05 A3024 RMK A01 T10081046  RH  075%=      5-min Rain = 0
KAD1 141012Z 05008KT M01/M05 A3024 RMK A01 T10081047  RH  075%=      5-min Rain = 0
KAD1 141013Z 05008KT M01/M05 A3024 RMK A01 T10091048  RH  075%=      5-min Rain = 0
KAD1 141014Z 04008KT M01/M05 A3024 RMK A01 T10101049  RH  075%=      5-min Rain = 0
KAD1 141015Z 04007KT M01/M05 A3024 RMK A01 T10111049  RH  075%=      5-min Rain = 0
KAD1 141016Z 05007KT M01/M05 A3024 RMK A01 T10111049  RH  075%=      5-min Rain = 0
KAD1 141017Z 05008KT M01/M05 A3024 RMK A01 T10111049  RH  075%=      5-min Rain = 0
KAD1 141018Z 05007KT M01/M05 A3024 RMK A01 T10111049  RH  075%=      5-min Rain = 0
KAD1 141019Z 05007KT M01/M05 A3024 RMK A01 T10101049  RH  075%=      5-min Rain = 0
KAD1 141020Z 05006KT M01/M05 A3024 RMK A01 T10101050  RH  075%=      5-min Rain = 0
KAD1 141021Z 05006KT M01/M05 A3024 RMK A01 T10111051  RH  075%=      5-min Rain = 0
KAD1 141022Z 05006KT M01/M05 A3024 RMK A01 T10121051  RH  075%=      5-min Rain = 0
KAD1 141023Z 05006KT M01/M05 A3024 RMK A01 T10131051  RH  075%=      5-min Rain = 0
KAD1 141024Z 05005KT M01/M05 A3024 RMK A01 T10131050  RH  076%=      5-min Rain = 0
KAD1 141025Z 05005KT M01/M05 A3024 RMK A01 T10131051  RH  075%=      5-min Rain = 0
KAD1 141026Z 05005KT M01/M05 A3025 RMK A01 T10131050  RH  076%=      5-min Rain = 0
KAD1 141027Z 04005KT M01/M05 A3025 RMK A01 T10131050  RH  076%=      5-min Rain = 0
KAD1 141028Z 04005KT M01/M05 A3024 RMK A01 T10121050  RH  076%=      5-min Rain = 0
KAD1 141029Z 05005KT M01/M05 A3025 RMK A01 T10121049  RH  076%=      5-min Rain = 0
KAD1 141030Z 05005KT M01/M05 A3025 RMK A01 T10121049  RH  076%=      5-min Rain = 0
KAD1 141031Z 04005KT M01/M05 A3025 RMK A01 T10121050  RH  075%=      5-min Rain = 0
KAD1 141032Z 04006KT M01/M05 A3025 RMK A01 T10111050  RH  075%=      5-min Rain = 0
KAD1 141033Z 04006KT M01/M05 A3025 RMK A01 T10111050  RH  075%=      5-min Rain = 0
KAD1 141034Z 04006KT M01/M05 A3025 RMK A01 T10101050  RH  075%=      5-min Rain = 0
KAD1 141035Z 04006KT M01/M05 A3025 RMK A01 T10101050  RH  074%=      5-min Rain = 0
KAD1 141036Z 04006KT M01/M05 A3025 RMK A01 T10091050  RH  074%=      5-min Rain = 0
KAD1 141037Z 04006KT M01/M05 A3025 RMK A01 T10101050  RH  074%=      5-min Rain = 0
KAD1 141038Z 04006KT M01/M05 A3025 RMK A01 T10111052  RH  074%=      5-min Rain = 0
KAD1 141039Z 04007KT M01/M05 A3025 RMK A01 T10111052  RH  074%=      5-min Rain = 0
KAD1 141040Z 04007KT M01/M05 A3025 RMK A01 T10111051  RH  074%=      5-min Rain = 0
KAD1 141041Z 04007KT M01/M05 A3025 RMK A01 T10111051  RH  074%=      5-min Rain = 0
KAD1 141042Z 04007KT M01/M05 A3025 RMK A01 T10121050  RH  075%=      5-min Rain = 0
KAD1 141043Z 04007KT M01/M05 A3025 RMK A01 T10111049  RH  075%=      5-min Rain = 0
KAD1 141044Z 04007KT M01/M05 A3025 RMK A01 T10101048  RH  075%=      5-min Rain = 0
KAD1 141045Z 04007KT M01/M05 A3025 RMK A01 T10091047  RH  075%=      5-min Rain = 0
KAD1 141046Z 04007KT M01/M05 A3025 RMK A01 T10091048  RH  075%=      5-min Rain = 0
KAD1 141047Z 04007KT M01/M05 A3025 RMK A01 T10091048  RH  075%=      5-min Rain = 0
KAD1 141048Z 04007KT M01/M05 A3025 RMK A01 T10091049  RH  075%=      5-min Rain = 0
KAD1 141049Z 04007KT M01/M05 A3025 RMK A01 T10101050  RH  075%=      5-min Rain = 0
KAD1 141050Z 04006KT M01/M05 A3025 RMK A01 T10121050  RH  075%=      5-min Rain = 0
KAD1 141051Z 04006KT M01/M05 A3025 RMK A01 T10131051  RH  075%=      5-min Rain = 0
KAD1 141052Z 04006KT M01/M05 A3025 RMK A01 T10131050  RH  076%=      5-min Rain = 0
KAD1 141053Z 03006KT M01/M05 A3025 RMK A01 T10131050  RH  076%=      5-min Rain = 0
KAD1 141054Z 03005KT M01/M05 A3025 RMK A01 T10141051  RH  076%=      5-min Rain = 0
KAD1 141055Z 03005KT M02/M05 A3025 RMK A01 T10151051  RH  076%=      5-min Rain = 0
KAD1 141056Z 03006KT M02/M05 A3025 RMK A01 T10151050  RH  077%=      5-min Rain = 0
KAD1 141057Z 03006KT M01/M05 A3025 RMK A01 T10141049  RH  077%=      5-min Rain = 0
KAD1 141058Z 03006KT M01/M05 A3026 RMK A01 T10121047  RH  077%=      5-min Rain = 0
KAD1 141059Z 02006KT M01/M05 A3026 RMK A01 T10101046  RH  077%=      5-min Rain = 0
KAD1 141100Z 02006KT M01/M05 A3026 RMK A01 T10091045  RH  077%=      5-min Rain = 0
KAD1 141101Z 02006KT M01/M04 A3026 RMK A01 T10081044  RH  076%=      5-min Rain = 0
KAD1 141102Z 02006KT M01/M05 A3026 RMK A01 T10071045  RH  076%=      5-min Rain = 0
KAD1 141103Z 02006KT M01/M05 A3026 RMK A01 T10081046  RH  075%=      5-min Rain = 0
KAD1 141104Z 02006KT M01/M05 A3026 RMK A01 T10071046  RH  075%=      5-min Rain = 0
KAD1 141105Z 02006KT M01/M05 A3026 RMK A01 T10071046  RH  075%=      5-min Rain = 0
KAD1 141106Z 02006KT M01/M05 A3026 RMK A01 T10071046  RH  075%=      5-min Rain = 0
KAD1 141107Z 03006KT M01/M05 A3026 RMK A01 T10071046  RH  075%=      5-min Rain = 0
KAD1 141108Z 02006KT M01/M05 A3026 RMK A01 T10071046  RH  075%=      5-min Rain = 0
KAD1 141109Z 03006KT M01/M05 A3026 RMK A01 T10071045  RH  076%=      5-min Rain = 0
KAD1 141110Z 03006KT M01/M04 A3026 RMK A01 T10071044  RH  076%=      5-min Rain = 0
KAD1 141111Z 03006KT M01/M05 A3026 RMK A01 T10071045  RH  075%=      5-min Rain = 0
KAD1 141112Z 03005KT M01/M05 A3026 RMK A01 T10071045  RH  075%=      5-min Rain = 0
KAD1 141113Z 03005KT M01/M05 A3026 RMK A01 T10071045  RH  076%=      5-min Rain = 0
KAD1 141114Z 03005KT M01/M04 A3026 RMK A01 T10071044  RH  076%=      5-min Rain = 0
KAD1 141115Z 03005KT M01/M04 A3026 RMK A01 T10071044  RH  076%=      5-min Rain = 0
KAD1 141116Z 03005KT M01/M04 A3026 RMK A01 T10051042  RH  076%=      5-min Rain = 0
KAD1 141117Z 03005KT M00/M04 A3026 RMK A01 T10041042  RH  076%=      5-min Rain = 0
KAD1 141118Z 04005KT M00/M04 A3026 RMK A01 T10041042  RH  075%=      5-min Rain = 0
KAD1 141119Z 03005KT M00/M04 A3026 RMK A01 T10041043  RH  075%=      5-min Rain = 0
KAD1 141120Z 03005KT M00/M04 A3026 RMK A01 T10041043  RH  075%=      5-min Rain = 0
KAD1 141121Z 03005KT M00/M04 A3026 RMK A01 T10041044  RH  075%=      5-min Rain = 0
KAD1 141122Z 03005KT M01/M04 A3026 RMK A01 T10051044  RH  075%=      5-min Rain = 0
KAD1 141123Z 03005KT M01/M05 A3026 RMK A01 T10061046  RH  074%=      5-min Rain = 0
KAD1 141124Z 03005KT M01/M05 A3026 RMK A01 T10081048  RH  075%=      5-min Rain = 0
KAD1 141125Z 03005KT M01/M05 A3026 RMK A01 T10101048  RH  076%=      5-min Rain = 0
KAD1 141126Z 03005KT M01/M05 A3026 RMK A01 T10101046  RH  077%=      5-min Rain = 0
KAD1 141127Z 03005KT M01/M05 A3026 RMK A01 T10101045  RH  077%=      5-min Rain = 0
KAD1 141128Z 03005KT M01/M04 A3027 RMK A01 T10091043  RH  077%=      5-min Rain = 0
KAD1 141129Z 03005KT M01/M04 A3027 RMK A01 T10081043  RH  077%=      5-min Rain = 0
KAD1 141130Z 03005KT M01/M04 A3027 RMK A01 T10071043  RH  077%=      5-min Rain = 0
KAD1 141131Z 03005KT M01/M04 A3027 RMK A01 T10071044  RH  076%=      5-min Rain = 0
KAD1 141132Z 04005KT M01/M04 A3027 RMK A01 T10071044  RH  076%=      5-min Rain = 0
KAD1 141133Z 03005KT M01/M04 A3027 RMK A01 T10071043  RH  076%=      5-min Rain = 0
KAD1 141134Z 04005KT M01/M04 A3027 RMK A01 T10071043  RH  076%=      5-min Rain = 0
KAD1 141135Z 03005KT M01/M04 A3027 RMK A01 T10061043  RH  076%=      5-min Rain = 0
KAD1 141136Z 03005KT M01/M04 A3027 RMK A01 T10061043  RH  076%=      5-min Rain = 0
KAD1 141137Z 03005KT M01/M04 A3027 RMK A01 T10061043  RH  076%=      5-min Rain = 0
KAD1 141138Z 03004KT M01/M04 A3027 RMK A01 T10061043  RH  076%=      5-min Rain = 0
KAD1 141139Z 04004KT M01/M04 A3027 RMK A01 T10061043  RH  076%=      5-min Rain = 0
KAD1 141140Z 04004KT M01/M04 A3027 RMK A01 T10061043  RH  076%=      5-min Rain = 0
KAD1 141141Z 04004KT M01/M04 A3027 RMK A01 T10061043  RH  076%=      5-min Rain = 0
KAD1 141142Z 04004KT M01/M04 A3027 RMK A01 T10061042  RH  076%=      5-min Rain = 0
KAD1 141143Z 04004KT M01/M04 A3027 RMK A01 T10051042  RH  076%=      5-min Rain = 0
KAD1 141144Z 04004KT M01/M04 A3027 RMK A01 T10051042  RH  076%=      5-min Rain = 0
KAD1 141145Z 04004KT M01/M04 A3028 RMK A01 T10051042  RH  076%=      5-min Rain = 0
KAD1 141146Z 04004KT M01/M04 A3028 RMK A01 T10051042  RH  076%=      5-min Rain = 0
KAD1 141147Z 04004KT M01/M04 A3028 RMK A01 T10051042  RH  076%=      5-min Rain = 0
KAD1 141148Z 03004KT M01/M04 A3028 RMK A01 T10051042  RH  076%=      5-min Rain = 0
KAD1 141149Z 03003KT M01/M04 A3028 RMK A01 T10051042  RH  076%=      5-min Rain = 0
KAD1 141150Z 03003KT M01/M04 A3028 RMK A01 T10051042  RH  076%=      5-min Rain = 0
KAD1 141151Z 03003KT M01/M04 A3028 RMK A01 T10051041  RH  076%=      5-min Rain = 0
KAD1 141152Z 03003KT M01/M04 A3028 RMK A01 T10051042  RH  076%=      5-min Rain = 0
KAD1 141153Z 03003KT M01/M04 A3028 RMK A01 T10051042  RH  076%=      5-min Rain = 0
KAD1 141154Z 02003KT M01/M04 A3028 RMK A01 T10051041  RH  076%=      5-min Rain = 0
KAD1 141155Z 03004KT M00/M04 A3028 RMK A01 T10041041  RH  076%=      5-min Rain = 0
KAD1 141156Z 02004KT M01/M04 A3028 RMK A01 T10051041  RH  077%=      5-min Rain = 0
KAD1 141157Z 03004KT M00/M04 A3028 RMK A01 T10041040  RH  077%=      5-min Rain = 0
KAD1 141158Z 02005KT M00/M04 A3028 RMK A01 T10041040  RH  077%=      5-min Rain = 0
KAD1 141159Z 02005KT M00/M04 A3028 RMK A01 T10041040  RH  076%=      5-min Rain = 0
KAD1 141200Z 02005KT M00/M04 A3028 RMK A01 T10031040  RH  076%=      5-min Rain = 0
KAD1 141201Z 03005KT M00/M04 A3028 RMK A01 T10031040  RH  076%=      5-min Rain = 0
KAD1 141202Z 03005KT M00/M04 A3028 RMK A01 T10031040  RH  076%=      5-min Rain = 0
KAD1 141203Z 03005KT M00/M04 A3028 RMK A01 T10041041  RH  076%=      5-min Rain = 0
KAD1 141204Z 03005KT M01/M04 A3028 RMK A01 T10051041  RH  076%=      5-min Rain = 0
KAD1 141205Z 03004KT M01/M04 A3028 RMK A01 T10051041  RH  077%=      5-min Rain = 0
KAD1 141206Z 04004KT M01/M04 A3028 RMK A01 T10051041  RH  077%=      5-min Rain = 0
KAD1 141207Z 04004KT M01/M04 A3028 RMK A01 T10061041  RH  077%=      5-min Rain = 0
KAD1 141208Z 04003KT M01/M04 A3028 RMK A01 T10061041  RH  077%=      5-min Rain = 0
KAD1 141209Z 04004KT M01/M04 A3028 RMK A01 T10061040  RH  078%=      5-min Rain = 0
KAD1 141210Z 04004KT M01/M04 A3028 RMK A01 T10061040  RH  078%=      5-min Rain = 0
KAD1 141211Z 04004KT M01/M04 A3028 RMK A01 T10051039  RH  078%=      5-min Rain = 0
KAD1 141212Z 04004KT M01/M04 A3028 RMK A01 T10051039  RH  078%=      5-min Rain = 0
KAD1 141213Z 04005KT M01/M04 A3028 RMK A01 T10051039  RH  078%=      5-min Rain = 0
KAD1 141214Z 04004KT M01/M04 A3028 RMK A01 T10051039  RH  078%=      5-min Rain = 0
KAD1 141215Z 04005KT M01/M04 A3028 RMK A01 T10051040  RH  077%=      5-min Rain = 0
KAD1 141216Z 04004KT M01/M04 A3028 RMK A01 T10051041  RH  077%=      5-min Rain = 0
KAD1 141217Z 04005KT M01/M04 A3028 RMK A01 T10051041  RH  077%=      5-min Rain = 0
KAD1 141218Z 04005KT M01/M04 A3028 RMK A01 T10051040  RH  077%=      5-min Rain = 0
KAD1 141219Z 04005KT M01/M04 A3028 RMK A01 T10051039  RH  078%=      5-min Rain = 0
KAD1 141220Z 04004KT M00/M04 A3028 RMK A01 T10041038  RH  078%=      5-min Rain = 0
KAD1 141221Z 04004KT M00/M04 A3029 RMK A01 T10041039  RH  077%=      5-min Rain = 0
KAD1 141222Z 04004KT M00/M04 A3029 RMK A01 T10041039  RH  077%=      5-min Rain = 0
KAD1 141223Z 04004KT M00/M04 A3029 RMK A01 T10041039  RH  078%=      5-min Rain = 0
KAD1 141224Z 04005KT M00/M04 A3029 RMK A01 T10041038  RH  078%=      5-min Rain = 0
KAD1 141225Z 04005KT M00/M04 A3029 RMK A01 T10041039  RH  077%=      5-min Rain = 0
KAD1 141226Z 03005KT M00/M04 A3029 RMK A01 T10041040  RH  077%=      5-min Rain = 0
KAD1 141227Z 03005KT M00/M04 A3029 RMK A01 T10041039  RH  078%=      5-min Rain = 0
KAD1 141228Z 03005KT M00/M04 A3029 RMK A01 T10041039  RH  078%=      5-min Rain = 0
KAD1 141229Z 03005KT M01/M04 A3029 RMK A01 T10051039  RH  078%=      5-min Rain = 0
KAD1 141230Z 03004KT M00/M04 A3029 RMK A01 T10041038  RH  078%=      5-min Rain = 0
KAD1 141231Z 03004KT M00/M04 A3029 RMK A01 T10041037  RH  078%=      5-min Rain = 0
KAD1 141232Z 03004KT M00/M04 A3029 RMK A01 T10041037  RH  078%=      5-min Rain = 0
KAD1 141233Z 03005KT M00/M04 A3029 RMK A01 T10031037  RH  078%=      5-min Rain = 0
KAD1 141234Z 03005KT M00/M04 A3029 RMK A01 T10031037  RH  078%=      5-min Rain = 0
KAD1 141235Z 03005KT M00/M04 A303 RMK A01 T10031037  RH  078%=      5-min Rain = 0
KAD1 141236Z 03005KT M00/M04 A303 RMK A01 T10041038  RH  077%=      5-min Rain = 0
KAD1 141237Z 02006KT M01/M04 A303 RMK A01 T10061040  RH  077%=      5-min Rain = 0
KAD1 141238Z 02005KT M01/M04 A303 RMK A01 T10071040  RH  078%=      5-min Rain = 0
KAD1 141239Z 02005KT M01/M04 A303 RMK A01 T10071040  RH  079%=      5-min Rain = 0
KAD1 141240Z 02005KT M01/M04 A303 RMK A01 T10081040  RH  079%=      5-min Rain = 0
KAD1 141241Z 02005KT M01/M04 A303 RMK A01 T10081040  RH  079%=      5-min Rain = 0
KAD1 141242Z 02005KT M01/M04 A303 RMK A01 T10091040  RH  079%=      5-min Rain = 0
KAD1 141243Z 02005KT M01/M04 A303 RMK A01 T10091040  RH  080%=      5-min Rain = 0
KAD1 141244Z 01005KT M01/M04 A303 RMK A01 T10101041  RH  080%=      5-min Rain = 0
KAD1 141245Z 01005KT M01/M04 A303 RMK A01 T10101040  RH  080%=      5-min Rain = 0
KAD1 141246Z 01004KT M01/M04 A303 RMK A01 T10111040  RH  080%=      5-min Rain = 0
KAD1 141247Z 36004KT M01/M04 A303 RMK A01 T10121042  RH  080%=      5-min Rain = 0
KAD1 141248Z 35003KT M01/M04 A303 RMK A01 T10121041  RH  081%=      5-min Rain = 0
KAD1 141249Z 34003KT M01/M04 A303 RMK A01 T10121042  RH  080%=      5-min Rain = 0
KAD1 141250Z 35003KT M01/M04 A303 RMK A01 T10121043  RH  080%=      5-min Rain = 0
KAD1 141251Z 35003KT M01/M04 A303 RMK A01 T10111043  RH  079%=      5-min Rain = 0
KAD1 141252Z 35003KT M01/M04 A303 RMK A01 T10111044  RH  078%=      5-min Rain = 0
KAD1 141253Z 34003KT M01/M05 A303 RMK A01 T10121045  RH  078%=      5-min Rain = 0
KAD1 141254Z 34003KT M01/M05 A303 RMK A01 T10121045  RH  078%=      5-min Rain = 0
KAD1 141255Z 34003KT M01/M05 A3031 RMK A01 T10121045  RH  078%=      5-min Rain = 0
KAD1 141256Z 34003KT M01/M05 A3031 RMK A01 T10121045  RH  078%=      5-min Rain = 0
KAD1 141257Z 34003KT M01/M05 A3031 RMK A01 T10121045  RH  078%=      5-min Rain = 0
KAD1 141258Z 35003KT M01/M05 A3031 RMK A01 T10121045  RH  078%=      5-min Rain = 0
KAD1 141259Z 34003KT M01/M05 A3031 RMK A01 T10121045  RH  078%=      5-min Rain = 0
KAD1 141300Z 35003KT M01/M05 A3031 RMK A01 T10111045  RH  078%=      5-min Rain = 0
KAD1 141301Z 35003KT M01/M05 A3031 RMK A01 T10121046  RH  078%=      5-min Rain = 0
KAD1 141302Z 34003KT M01/M05 A3031 RMK A01 T10121045  RH  078%=      5-min Rain = 0
KAD1 141303Z 33003KT M01/M05 A3031 RMK A01 T10121045  RH  078%=      5-min Rain = 0
KAD1 141304Z 33003KT M01/M05 A3031 RMK A01 T10121045  RH  078%=      5-min Rain = 0
KAD1 141305Z 33003KT M01/M05 A3031 RMK A01 T10121046  RH  078%=      5-min Rain = 0
KAD1 141306Z 33003KT M01/M05 A3031 RMK A01 T10131047  RH  078%=      5-min Rain = 0
KAD1 141307Z 33003KT M01/M05 A3031 RMK A01 T10141048  RH  078%=      5-min Rain = 0
KAD1 141308Z 32004KT M01/M05 A3031 RMK A01 T10141049  RH  077%=      5-min Rain = 0
KAD1 141309Z 32004KT M02/M05 A3031 RMK A01 T10151051  RH  077%=      5-min Rain = 0
KAD1 141310Z 32004KT M02/M05 A3031 RMK A01 T10171052  RH  077%=      5-min Rain = 0
KAD1 141311Z 32004KT M02/M05 A3031 RMK A01 T10181053  RH  077%=      5-min Rain = 0
KAD1 141312Z 32004KT M02/M05 A3031 RMK A01 T10191054  RH  077%=      5-min Rain = 0
KAD1 141313Z 31004KT M02/M05 A3031 RMK A01 T10191054  RH  077%=      5-min Rain = 0
KAD1 141314Z 31003KT M02/M05 A3031 RMK A01 T10201054  RH  077%=      5-min Rain = 0
KAD1 141315Z 31003KT M02/M05 A3031 RMK A01 T10201054  RH  077%=      5-min Rain = 0
KAD1 141316Z 30003KT M02/M05 A3031 RMK A01 T10201054  RH  078%=      5-min Rain = 0
KAD1 141317Z 29003KT M02/M05 A3032 RMK A01 T10211054  RH  078%=      5-min Rain = 0
KAD1 141318Z 28003KT M02/M05 A3032 RMK A01 T10201054  RH  078%=      5-min Rain = 0
KAD1 141319Z 28003KT M02/M05 A3032 RMK A01 T10211054  RH  078%=      5-min Rain = 0
KAD1 141320Z 28003KT M02/M06 A3032 RMK A01 T10211055  RH  078%=      5-min Rain = 0
KAD1 141321Z 28003KT M02/M06 A3032 RMK A01 T10231056  RH  078%=      5-min Rain = 0
KAD1 141322Z 28003KT M03/M06 A3032 RMK A01 T10251057  RH  078%=      5-min Rain = 0
KAD1 141323Z 27003KT M03/M06 A3032 RMK A01 T10271058  RH  079%=      5-min Rain = 0
KAD1 141324Z 27003KT M03/M06 A3032 RMK A01 T10281058  RH  080%=      5-min Rain = 0
KAD1 141325Z 27003KT M03/M06 A3032 RMK A01 T10281057  RH  081%=      5-min Rain = 0
KAD1 141326Z 27003KT M03/M06 A3032 RMK A01 T10281057  RH  081%=      5-min Rain = 0
KAD1 141327Z 28003KT M03/M06 A3032 RMK A01 T10281057  RH  081%=      5-min Rain = 0
KAD1 141328Z 28003KT M03/M06 A3032 RMK A01 T10281056  RH  081%=      5-min Rain = 0
KAD1 141329Z 27003KT M03/M06 A3032 RMK A01 T10281056  RH  081%=      5-min Rain = 0
KAD1 141330Z 28003KT M03/M06 A3032 RMK A01 T10281056  RH  081%=      5-min Rain = 0
KAD1 141331Z 28003KT M03/M06 A3032 RMK A01 T10281056  RH  081%=      5-min Rain = 0
KAD1 141332Z 28003KT M03/M06 A3032 RMK A01 T10281056  RH  081%=      5-min Rain = 0
KAD1 141333Z 28003KT M03/M06 A3032 RMK A01 T10291057  RH  081%=      5-min Rain = 0
KAD1 141334Z 29003KT M03/M06 A3032 RMK A01 T10291056  RH  082%=      5-min Rain = 0
KAD1 141335Z 30003KT M03/M06 A3033 RMK A01 T10291055  RH  082%=      5-min Rain = 0
KAD1 141336Z 29003KT M03/M05 A3033 RMK A01 T10281054  RH  082%=      5-min Rain = 0
KAD1 141337Z 30003KT M03/M05 A3033 RMK A01 T10271053  RH  082%=      5-min Rain = 0
KAD1 141338Z 30003KT M03/M05 A3033 RMK A01 T10261052  RH  082%=      5-min Rain = 0
KAD1 141339Z 31003KT M03/M05 A3033 RMK A01 T10251052  RH  082%=      5-min Rain = 0
KAD1 141340Z 31003KT M03/M05 A3033 RMK A01 T10251053  RH  081%=      5-min Rain = 0
KAD1 141341Z 31003KT M03/M05 A3033 RMK A01 T10251053  RH  081%=      5-min Rain = 0
KAD1 141342Z 31003KT M02/M05 A3033 RMK A01 T10241052  RH  081%=      5-min Rain = 0
KAD1 141343Z 32003KT M02/M05 A3033 RMK A01 T10211049  RH  081%=      5-min Rain = 0
KAD1 141344Z 32003KT M02/M05 A3033 RMK A01 T10191048  RH  081%=      5-min Rain = 0
KAD1 141345Z 32004KT M02/M05 A3033 RMK A01 T10181048  RH  080%=      5-min Rain = 0
KAD1 141346Z 31004KT M02/M05 A3033 RMK A01 T10161047  RH  080%=      5-min Rain = 0
KAD1 141347Z 31004KT M02/M05 A3033 RMK A01 T10151047  RH  079%=      5-min Rain = 0
KAD1 141348Z 31004KT M02/M05 A3033 RMK A01 T10151047  RH  079%=      5-min Rain = 0
KAD1 141349Z 31004KT M01/M05 A3033 RMK A01 T10141047  RH  079%=      5-min Rain = 0
KAD1 141350Z 31004KT M01/M05 A3034 RMK A01 T10141047  RH  078%=      5-min Rain = 0
KAD1 141351Z 30004KT M01/M05 A3034 RMK A01 T10141047  RH  078%=      5-min Rain = 0
KAD1 141352Z 30003KT M01/M05 A3034 RMK A01 T10131047  RH  077%=      5-min Rain = 0
KAD1 141353Z 29003KT M01/M05 A3034 RMK A01 T10131048  RH  077%=      5-min Rain = 0
KAD1 141354Z 29004KT M01/M05 A3034 RMK A01 T10131048  RH  077%=      5-min Rain = 0
KAD1 141355Z 29004KT M01/M05 A3034 RMK A01 T10131048  RH  077%=      5-min Rain = 0
KAD1 141356Z 28003KT M01/M05 A3034 RMK A01 T10121047  RH  078%=      5-min Rain = 0
KAD1 141357Z 28004KT M01/M05 A3034 RMK A01 T10131046  RH  078%=      5-min Rain = 0
KAD1 141358Z 28004KT M01/M05 A3034 RMK A01 T10131046  RH  079%=      5-min Rain = 0
KAD1 141359Z 28004KT M01/M05 A3034 RMK A01 T10141046  RH  079%=      5-min Rain = 0
KAD1 141400Z 28004KT M01/M05 A3034 RMK A01 T10141045  RH  079%=      5-min Rain = 0
KAD1 141401Z 28004KT M01/M05 A3034 RMK A01 T10141045  RH  080%=      5-min Rain = 0
KAD1 141402Z 28004KT M01/M05 A3034 RMK A01 T10141045  RH  080%=      5-min Rain = 0
KAD1 141403Z 28004KT M01/M05 A3034 RMK A01 T10141045  RH  080%=      5-min Rain = 0
KAD1 141404Z 28004KT M01/M04 A3034 RMK A01 T10131044  RH  079%=      5-min Rain = 0
KAD1 141405Z 28004KT M01/M04 A3034 RMK A01 T10121044  RH  079%=      5-min Rain = 0
KAD1 141406Z 28004KT M01/M04 A3035 RMK A01 T10111044  RH  078%=      5-min Rain = 0
KAD1 141407Z 28005KT M01/M04 A3035 RMK A01 T10111044  RH  078%=      5-min Rain = 0
KAD1 141408Z 28005KT M01/M04 A3035 RMK A01 T10111044  RH  078%=      5-min Rain = 0
KAD1 141409Z 28005KT M01/M04 A3035 RMK A01 T10111044  RH  078%=      5-min Rain = 0
KAD1 141410Z 28005KT M01/M04 A3035 RMK A01 T10101044  RH  078%=      5-min Rain = 0
KAD1 141411Z 28004KT M01/M04 A3035 RMK A01 T10091043  RH  078%=      5-min Rain = 0
KAD1 141412Z 29004KT M01/M04 A3035 RMK A01 T10081042  RH  077%=      5-min Rain = 0
KAD1 141413Z 29004KT M01/M04 A3035 RMK A01 T10071042  RH  077%=      5-min Rain = 0
KAD1 141414Z 29003KT M01/M04 A3035 RMK A01 T10061042  RH  077%=      5-min Rain = 0
KAD1 141415Z 27003KT M01/M04 A3035 RMK A01 T10051042  RH  076%=      5-min Rain = 0
KAD1 141416Z 27003KT M00/M04 A3035 RMK A01 T10041041  RH  076%=      5-min Rain = 0
KAD1 141417Z 27003KT M00/M04 A3035 RMK A01 T10031041  RH  076%=      5-min Rain = 0
KAD1 141418Z 28004KT M00/M04 A3035 RMK A01 T10031041  RH  076%=      5-min Rain = 0
KAD1 141419Z 28003KT M00/M04 A3035 RMK A01 T10021040  RH  076%=      5-min Rain = 0
KAD1 141420Z 28004KT M00/M04 A3036 RMK A01 T10021040  RH  076%=      5-min Rain = 0
KAD1 141421Z 28004KT M00/M04 A3036 RMK A01 T10021040  RH  075%=      5-min Rain = 0
KAD1 141422Z 27004KT M00/M04 A3036 RMK A01 T10021041  RH  075%=      5-min Rain = 0
KAD1 141423Z 27004KT M00/M04 A3036 RMK A01 T10021040  RH  075%=      5-min Rain = 0
KAD1 141424Z 27004KT M00/M04 A3036 RMK A01 T10011038  RH  076%=      5-min Rain = 0
KAD1 141425Z 27004KT 00/04 A3036 RMK A01 T00000-37  RH  076%=      5-min Rain = 0
KAD1 141426Z 26004KT 00/M04 A3036 RMK A01 T00011038  RH  075%=      5-min Rain = 0
KAD1 141427Z 26004KT 00/M04 A3036 RMK A01 T00011037  RH  075%=      5-min Rain = 0
KAD1 141428Z 26004KT 00/M04 A3036 RMK A01 T00011037  RH  075%=      5-min Rain = 0
KAD1 141429Z 26004KT 00/M04 A3036 RMK A01 T00021037  RH  075%=      5-min Rain = 0
KAD1 141430Z 27004KT 00/M04 A3036 RMK A01 T00021036  RH  075%=      5-min Rain = 0
KAD1 141431Z 28003KT 00/M04 A3036 RMK A01 T00031036  RH  075%=      5-min Rain = 0
KAD1 141432Z 29004KT 00/M04 A3036 RMK A01 T00031036  RH  075%=      5-min Rain = 0
KAD1 141433Z 29004KT 00/M04 A3037 RMK A01 T00031037  RH  074%=      5-min Rain = 0
KAD1 141434Z 28004KT 00/M04 A3037 RMK A01 T00031037  RH  074%=      5-min Rain = 0
KAD1 141435Z 28004KT 00/M04 A3037 RMK A01 T00041038  RH  074%=      5-min Rain = 0
KAD1 141436Z 28004KT 00/M04 A3037 RMK A01 T00041037  RH  074%=      5-min Rain = 0
KAD1 141437Z 28004KT 01/M04 A3037 RMK A01 T00051035  RH  074%=      5-min Rain = 0
KAD1 141438Z 29004KT 01/M04 A3037 RMK A01 T00061035  RH  074%=      5-min Rain = 0
KAD1 141439Z 30003KT 01/M04 A3037 RMK A01 T00061036  RH  073%=      5-min Rain = 0
KAD1 141440Z 30003KT 01/M04 A3037 RMK A01 T00071036  RH  073%=      5-min Rain = 0
KAD1 141441Z 29003KT 01/M04 A3037 RMK A01 T00071036  RH  073%=      5-min Rain = 0
KAD1 141442Z 30003KT 01/M04 A3037 RMK A01 T00071036  RH  073%=      5-min Rain = 0
KAD1 141443Z 30003KT 01/M04 A3037 RMK A01 T00071036  RH  073%=      5-min Rain = 0
KAD1 141444Z 31003KT 01/M04 A3037 RMK A01 T00081035  RH  073%=      5-min Rain = 0
KAD1 141445Z 31003KT 01/M04 A3037 RMK A01 T00081035  RH  073%=      5-min Rain = 0
KAD1 141446Z 30003KT 01/M04 A3038 RMK A01 T00091035  RH  073%=      5-min Rain = 0
KAD1 141447Z 30003KT 01/M04 A3038 RMK A01 T00091035  RH  072%=      5-min Rain = 0
KAD1 141448Z 30003KT 01/M04 A3038 RMK A01 T00091035  RH  072%=      5-min Rain = 0
KAD1 141449Z 31003KT 01/M04 A3038 RMK A01 T00091035  RH  072%=      5-min Rain = 0
KAD1 141450Z 32003KT 01/M04 A3038 RMK A01 T00091036  RH  072%=      5-min Rain = 0
KAD1 141451Z 33003KT 01/M03 A3038 RMK A01 T00101034  RH  072%=      5-min Rain = 0
KAD1 141452Z 32003KT 01/M03 A3038 RMK A01 T00111034  RH  072%=      5-min Rain = 0
KAD1 141453Z 32003KT 01/M04 A3038 RMK A01 T00111036  RH  071%=      5-min Rain = 0
KAD1 141454Z 33003KT 01/M04 A3038 RMK A01 T00111035  RH  071%=      5-min Rain = 0
KAD1 141455Z 33003KT 01/M04 A3038 RMK A01 T00111035  RH  071%=      5-min Rain = 0
KAD1 141456Z 33003KT 01/M04 A3039 RMK A01 T00111035  RH  071%=      5-min Rain = 0
KAD1 141457Z 33003KT 01/M03 A3039 RMK A01 T00121034  RH  071%=      5-min Rain = 0
KAD1 141458Z 33003KT 01/M03 A3039 RMK A01 T00131033  RH  071%=      5-min Rain = 0
KAD1 141459Z 32003KT 01/M03 A3039 RMK A01 T00131034  RH  071%=      5-min Rain = 0
KAD1 141500Z 32003KT 01/M04 A3039 RMK A01 T00131035  RH  070%=      5-min Rain = 0
KAD1 141501Z 33003KT 01/M03 A3039 RMK A01 T00131034  RH  071%=      5-min Rain = 0
KAD1 141502Z 33003KT 01/M04 A3039 RMK A01 T00131035  RH  070%=      5-min Rain = 0
KAD1 141503Z 32003KT 01/M04 A3039 RMK A01 T00131035  RH  070%=      5-min Rain = 0
KAD1 141504Z 33003KT 01/M03 A3039 RMK A01 T00141033  RH  071%=      5-min Rain = 0
KAD1 141505Z 32003KT 02/M03 A3039 RMK A01 T00151033  RH  071%=      5-min Rain = 0
KAD1 141506Z 33004KT 02/M03 A3039 RMK A01 T00151032  RH  071%=      5-min Rain = 0
KAD1 141507Z 34004KT 02/M03 A3039 RMK A01 T00161031  RH  071%=      5-min Rain = 0
KAD1 141508Z 34003KT 02/M03 A3039 RMK A01 T00161032  RH  071%=      5-min Rain = 0
KAD1 141509Z 35003KT 02/M03 A304 RMK A01 T00161032  RH  071%=      5-min Rain = 0
KAD1 141510Z 36003KT 02/M03 A304 RMK A01 T00161031  RH  071%=      5-min Rain = 0
KAD1 141511Z 35002KT 02/M03 A304 RMK A01 T00161030  RH  071%=      5-min Rain = 0
KAD1 141512Z 33003KT 02/M03 A304 RMK A01 T00171028  RH  072%=      5-min Rain = 0
KAD1 141513Z 35003KT 02/M03 A304 RMK A01 T00181030  RH  071%=      5-min Rain = 0
KAD1 141514Z 03002KT 02/M03 A304 RMK A01 T00191030  RH  070%=      5-min Rain = 0
KAD1 141515Z 35002KT 02/M03 A304 RMK A01 T00191030  RH  070%=      5-min Rain = 0
KAD1 141516Z 35003KT 02/M03 A304 RMK A01 T00201029  RH  070%=      5-min Rain = 0
KAD1 141517Z 34002KT 02/M03 A304 RMK A01 T00211030  RH  069%=      5-min Rain = 0
KAD1 141518Z 36002KT 02/M03 A304 RMK A01 T00201031  RH  069%=      5-min Rain = 0
KAD1 141519Z 35002KT 02/M03 A304 RMK A01 T00201029  RH  070%=      5-min Rain = 0
KAD1 141520Z 01002KT 02/M03 A304 RMK A01 T00211026  RH  071%=      5-min Rain = 0
KAD1 141521Z 01001KT 02/M03 A304 RMK A01 T00211028  RH  070%=      5-min Rain = 0
KAD1 141522Z 04002KT 02/M03 A304 RMK A01 T00221028  RH  070%=      5-min Rain = 0
KAD1 141523Z 07002KT 02/M03 A304 RMK A01 T00221027  RH  070%=      5-min Rain = 0
KAD1 141524Z 06002KT 02/M03 A304 RMK A01 T00231025  RH  070%=      5-min Rain = 0
KAD1 141525Z 07002KT 02/M03 A304 RMK A01 T00241025  RH  070%=      5-min Rain = 0
KAD1 141526Z 05001KT 03/M02 A304 RMK A01 T00251024  RH  070%=      5-min Rain = 0
KAD1 141527Z 01001KT 03/M02 A304 RMK A01 T00261024  RH  070%=      5-min Rain = 0
KAD1 141528Z 00002KT 03/M02 A304 RMK A01 T00261024  RH  069%=      5-min Rain = 0
KAD1 141529Z 04002KT 03/M02 A304 RMK A01 T00261023  RH  070%=      5-min Rain = 0
KAD1 141530Z 04002KT 03/M02 A304 RMK A01 T00271021  RH  070%=      5-min Rain = 0
KAD1 141531Z 05002KT 03/M02 A304 RMK A01 T00291020  RH  070%=      5-min Rain = 0
KAD1 141532Z 07003KT 03/M02 A304 RMK A01 T00311020  RH  069%=      5-min Rain = 0
KAD1 141533Z 07003KT 03/M02 A304 RMK A01 T00311022  RH  068%=      5-min Rain = 0
KAD1 141534Z 08002KT 03/M02 A304 RMK A01 T00301024  RH  068%=      5-min Rain = 0
KAD1 141535Z 07002KT 03/M02 A304 RMK A01 T00291023  RH  068%=      5-min Rain = 0
KAD1 141536Z 07003KT 03/M02 A304 RMK A01 T00301023  RH  068%=      5-min Rain = 0
KAD1 141537Z 08003KT 03/M02 A304 RMK A01 T00311020  RH  069%=      5-min Rain = 0
KAD1 141538Z 09005KT 03/M02 A304 RMK A01 T00331016  RH  070%=      5-min Rain = 0
KAD1 141539Z 08004KT 04/M01 A304 RMK A01 T00351014  RH  070%=      5-min Rain = 0
KAD1 141540Z 07005KT 04/M01 A304 RMK A01 T00361014  RH  070%=      5-min Rain = 0
KAD1 141541Z 09005KT 04/M02 A304 RMK A01 T00361016  RH  069%=      5-min Rain = 0
KAD1 141542Z 09004KT 04/M02 A304 RMK A01 T00361015  RH  070%=      5-min Rain = 0
KAD1 141543Z 07005KT 04/M02 A304 RMK A01 T00361015  RH  069%=      5-min Rain = 0
KAD1 141544Z 06005KT 04/M01 A304 RMK A01 T00361014  RH  070%=      5-min Rain = 0
KAD1 141545Z 06006KT 04/M01 A304 RMK A01 T00371012  RH  070%=      5-min Rain = 0
KAD1 141546Z 06007KT 04/M01 A304 RMK A01 T00371012  RH  070%=      5-min Rain = 0
KAD1 141547Z 09007KT 04/M01 A304 RMK A01 T00371010  RH  071%=      5-min Rain = 0
KAD1 141548Z 08006KT 04/M01 A304 RMK A01 T00371012  RH  070%=      5-min Rain = 0
KAD1 141549Z 09006KT 04/M01 A304 RMK A01 T00371010  RH  071%=      5-min Rain = 0
KAD1 141550Z 06006KT 04/M01 A304 RMK A01 T00381010  RH  071%=      5-min Rain = 0
KAD1 141551Z 06006KT 04/M01 A304 RMK A01 T00391010  RH  071%=      5-min Rain = 0
KAD1 141552Z 06006KT 04/M01 A304 RMK A01 T00391010  RH  070%=      5-min Rain = 0
KAD1 141553Z 08006KT 04/M01 A3041 RMK A01 T00381010  RH  071%=      5-min Rain = 0
KAD1 141554Z 08006KT 04/M01 A3041 RMK A01 T00391008  RH  071%=      5-min Rain = 0
KAD1 141555Z 09005KT 04/M01 A3041 RMK A01 T00401008  RH  071%=      5-min Rain = 0
KAD1 141556Z 08006KT 04/M01 A3041 RMK A01 T00401010  RH  070%=      5-min Rain = 0
KAD1 141557Z 06005KT 04/M01 A3041 RMK A01 T00391011  RH  070%=      5-min Rain = 0
KAD1 141558Z 06007KT 04/M01 A3041 RMK A01 T00401009  RH  071%=      5-min Rain = 0
KAD1 141559Z 07007KT 04/M01 A3041 RMK A01 T00411009  RH  070%=      5-min Rain = 0
KAD1 141600Z 07006KT 04/M01 A3041 RMK A01 T00411010  RH  070%=      5-min Rain = 0
KAD1 141601Z 06006KT 04/M01 A3041 RMK A01 T00401011  RH  069%=      5-min Rain = 0
KAD1 141602Z 06006KT 04/M01 A3041 RMK A01 T00411010  RH  070%=      5-min Rain = 0
KAD1 141603Z 08006KT 04/M01 A3041 RMK A01 T00411010  RH  069%=      5-min Rain = 0
KAD1 141604Z 09006KT 04/M01 A3041 RMK A01 T00411009  RH  070%=      5-min Rain = 0
KAD1 141605Z 10004KT 04/M01 A3041 RMK A01 T00411010  RH  069%=      5-min Rain = 0
KAD1 141606Z 07005KT 04/M01 A3041 RMK A01 T00411009  RH  070%=      5-min Rain = 0
KAD1 141607Z 10006KT 04/M01 A3041 RMK A01 T00431008  RH  070%=      5-min Rain = 0
KAD1 141608Z 09006KT 04/M01 A3041 RMK A01 T00441007  RH  069%=      5-min Rain = 0
KAD1 141609Z 07006KT 05/M01 A3041 RMK A01 T00451008  RH  068%=      5-min Rain = 0
KAD1 141610Z 09004KT 04/M01 A3041 RMK A01 T00441009  RH  068%=      5-min Rain = 0
KAD1 141611Z 08005KT 04/M01 A3041 RMK A01 T00441009  RH  069%=      5-min Rain = 0
KAD1 141612Z 06006KT 05/M01 A3041 RMK A01 T00451005  RH  070%=      5-min Rain = 0
KAD1 141613Z 09006KT 05/M01 A3041 RMK A01 T00471006  RH  069%=      5-min Rain = 0
KAD1 141614Z 07006KT 05/M01 A3041 RMK A01 T00471005  RH  069%=      5-min Rain = 0
KAD1 141615Z 06004KT 05/M01 A3041 RMK A01 T00481006  RH  068%=      5-min Rain = 0
KAD1 141616Z 07004KT 05/M01 A3041 RMK A01 T00471007  RH  068%=      5-min Rain = 0
KAD1 141617Z 08004KT 05/M01 A3041 RMK A01 T00461008  RH  068%=      5-min Rain = 0
KAD1 141618Z 07003KT 05/M01 A3041 RMK A01 T00451009  RH  068%=      5-min Rain = 0
KAD1 141619Z 10005KT 05/M01 A3041 RMK A01 T00451007  RH  069%=      5-min Rain = 0
KAD1 141620Z 09003KT 05/M01 A3041 RMK A01 T00471007  RH  068%=      5-min Rain = 0
KAD1 141621Z 09003KT 05/M01 A3041 RMK A01 T00471008  RH  068%=      5-min Rain = 0
KAD1 141622Z 07003KT 05/M01 A3041 RMK A01 T00481006  RH  068%=      5-min Rain = 0
KAD1 141623Z 08004KT 05/M01 A3041 RMK A01 T00491005  RH  068%=      5-min Rain = 0
KAD1 141624Z 06005KT 05/M01 A3041 RMK A01 T00511005  RH  067%=      5-min Rain = 0
KAD1 141625Z 06005KT 05/M01 A3041 RMK A01 T00511005  RH  067%=      5-min Rain = 0
KAD1 141626Z 07005KT 05/M01 A3041 RMK A01 T00511006  RH  067%=      5-min Rain = 0
KAD1 141627Z 08005KT 05/M01 A3041 RMK A01 T00501006  RH  067%=      5-min Rain = 0
KAD1 141628Z 07004KT 05/M01 A3041 RMK A01 T00491006  RH  067%=      5-min Rain = 0
KAD1 141629Z 07005KT 05/M00 A3041 RMK A01 T00501004  RH  068%=      5-min Rain = 0
KAD1 141630Z 09005KT 05/M00 A3041 RMK A01 T00521003  RH  067%=      5-min Rain = 0
KAD1 141631Z 09007KT 05/M00 A3041 RMK A01 T00531003  RH  067%=      5-min Rain = 0
KAD1 141632Z 08005KT 05/M01 A3041 RMK A01 T00521006  RH  066%=      5-min Rain = 0
KAD1 141633Z 05005KT 05/M01 A3041 RMK A01 T00511005  RH  067%=      5-min Rain = 0
KAD1 141634Z 06004KT 05/M01 A3041 RMK A01 T00521005  RH  067%=      5-min Rain = 0
KAD1 141635Z 06005KT 05/M01 A3041 RMK A01 T00521005  RH  067%=      5-min Rain = 0
KAD1 141636Z 06004KT 05/M00 A3041 RMK A01 T00531004  RH  067%=      5-min Rain = 0
KAD1 141637Z 06003KT 05/M01 A3041 RMK A01 T00521006  RH  066%=      5-min Rain = 0
KAD1 141638Z 06005KT 05/M00 A3041 RMK A01 T00531002  RH  068%=      5-min Rain = 0
KAD1 141639Z 08006KT 06/M00 A3041 RMK A01 T00561001  RH  067%=      5-min Rain = 0
KAD1 141640Z 10005KT 06/M00 A3041 RMK A01 T00561004  RH  066%=      5-min Rain = 0
KAD1 141641Z 07006KT 06/M00 A3041 RMK A01 T00551003  RH  066%=      5-min Rain = 0
KAD1 141642Z 06006KT 06/M00 A3041 RMK A01 T00551003  RH  066%=      5-min Rain = 0
KAD1 141643Z 05005KT 06/M00 A3041 RMK A01 T00551004  RH  066%=      5-min Rain = 0
KAD1 141644Z 08005KT 06/M00 A3041 RMK A01 T00551003  RH  066%=      5-min Rain = 0
KAD1 141645Z 08006KT 06/M00 A3041 RMK A01 T00561003  RH  066%=      5-min Rain = 0
KAD1 141646Z 07005KT 06/M00 A3041 RMK A01 T00571002  RH  066%=      5-min Rain = 0
KAD1 141647Z 07005KT 06/M00 A3041 RMK A01 T00591002  RH  065%=      5-min Rain = 0
KAD1 141648Z 08006KT 06/M00 A3041 RMK A01 T00581003  RH  065%=      5-min Rain = 0
KAD1 141649Z 08005KT 06/M00 A3041 RMK A01 T00571004  RH  065%=      5-min Rain = 0
KAD1 141650Z 05006KT 06/M00 A3041 RMK A01 T00591001  RH  065%=      5-min Rain = 0
KAD1 141651Z 05004KT 06/M00 A3041 RMK A01 T00601002  RH  064%=      5-min Rain = 0
KAD1 141652Z 06005KT 06/M00 A3041 RMK A01 T00591002  RH  065%=      5-min Rain = 0
KAD1 141653Z 06005KT 06/M00 A3041 RMK A01 T00601002  RH  064%=      5-min Rain = 0
KAD1 141654Z 07007KT 06/M00 A3041 RMK A01 T00601002  RH  064%=      5-min Rain = 0
KAD1 141655Z 08006KT 06/M00 A3041 RMK A01 T00591003  RH  064%=      5-min Rain = 0
KAD1 141656Z 08008KT 06/M00 A3041 RMK A01 T00591002  RH  065%=      5-min Rain = 0
KAD1 141657Z 08007KT 06/M00 A3041 RMK A01 T00601002  RH  065%=      5-min Rain = 0
KAD1 141658Z 09006KT 06/M00 A3041 RMK A01 T00611002  RH  064%=      5-min Rain = 0
KAD1 141659Z 06007KT 06/00 A3041 RMK A01 T00620000  RH  065%=      5-min Rain = 0
KAD1 141700Z 06007KT 07/M00 A3041 RMK A01 T00651001  RH  063%=      5-min Rain = 0
KAD1 141701Z 05007KT 06/M00 A3041 RMK A01 T00631003  RH  063%=      5-min Rain = 0
KAD1 141702Z 04007KT 07/00 A3041 RMK A01 T00650000  RH  063%=      5-min Rain = 0
KAD1 141703Z 05007KT 07/M00 A3041 RMK A01 T00661001  RH  062%=      5-min Rain = 0
KAD1 141704Z 05004KT 07/M00 A3041 RMK A01 T00651002  RH  062%=      5-min Rain = 0
KAD1 141705Z 05005KT 06/M00 A3041 RMK A01 T00641002  RH  063%=      5-min Rain = 0
KAD1 141706Z 07006KT 07/00 A3041 RMK A01 T00660001  RH  063%=      5-min Rain = 0
KAD1 141707Z 08005KT 07/M00 A3041 RMK A01 T00671002  RH  062%=      5-min Rain = 0
KAD1 141708Z 10005KT 07/M00 A3041 RMK A01 T00661001  RH  062%=      5-min Rain = 0
KAD1 141709Z 07008KT 07/M00 A3041 RMK A01 T00661002  RH  062%=      5-min Rain = 0
KAD1 141710Z 05006KT 07/M00 A3041 RMK A01 T00671001  RH  062%=      5-min Rain = 0
KAD1 141711Z 07008KT 07/00 A3041 RMK A01 T006800-0  RH  062%=      5-min Rain = 0
KAD1 141712Z 07008KT 07/00 A3041 RMK A01 T00700001  RH  061%=      5-min Rain = 0
KAD1 141713Z 08006KT 07/M00 A3041 RMK A01 T00691002  RH  060%=      5-min Rain = 0
KAD1 141714Z 07006KT 07/M00 A3041 RMK A01 T00671004  RH  061%=      5-min Rain = 0
KAD1 141715Z 07007KT 07/M00 A3041 RMK A01 T00661004  RH  061%=      5-min Rain = 0
KAD1 141716Z 06007KT 07/M00 A3041 RMK A01 T00661003  RH  061%=      5-min Rain = 0
KAD1 141717Z 06005KT 07/M00 A3041 RMK A01 T00661004  RH  061%=      5-min Rain = 0
KAD1 141718Z 07006KT 07/M00 A3041 RMK A01 T00681002  RH  061%=      5-min Rain = 0
KAD1 141719Z 05006KT 07/00 A3041 RMK A01 T007000-0  RH  061%=      5-min Rain = 0
KAD1 141720Z 06007KT 07/00 A3041 RMK A01 T00730000  RH  060%=      5-min Rain = 0
KAD1 141721Z 08005KT 07/M00 A3041 RMK A01 T00721003  RH  059%=      5-min Rain = 0
KAD1 141722Z 08005KT 07/M00 A3041 RMK A01 T00691004  RH  060%=      5-min Rain = 0
KAD1 141723Z 08003KT 07/M00 A3041 RMK A01 T00691003  RH  060%=      5-min Rain = 0
KAD1 141724Z 02002KT 07/M00 A3042 RMK A01 T00691003  RH  060%=      5-min Rain = 0
KAD1 141725Z 04003KT 07/M00 A3042 RMK A01 T00701003  RH  060%=      5-min Rain = 0
KAD1 141726Z 06005KT 07/M00 A3042 RMK A01 T00711002  RH  060%=      5-min Rain = 0
KAD1 141727Z 06006KT 07/M00 A3042 RMK A01 T00721003  RH  059%=      5-min Rain = 0
KAD1 141728Z 04006KT 07/M00 A3041 RMK A01 T00721003  RH  059%=      5-min Rain = 0
KAD1 141729Z 04006KT 07/M00 A3041 RMK A01 T00721003  RH  059%=      5-min Rain = 0
KAD1 141730Z 06004KT 07/M00 A3041 RMK A01 T00721003  RH  059%=      5-min Rain = 0
KAD1 141731Z 04004KT 07/M00 A3042 RMK A01 T00711003  RH  059%=      5-min Rain = 0
KAD1 141732Z 03005KT 07/M00 A3042 RMK A01 T00721002  RH  059%=      5-min Rain = 0
KAD1 141733Z 04005KT 07/M00 A3042 RMK A01 T00721003  RH  059%=      5-min Rain = 0
KAD1 141734Z 05005KT 07/M00 A3042 RMK A01 T00721003  RH  059%=      5-min Rain = 0
KAD1 141735Z 06004KT 07/M00 A3041 RMK A01 T00721002  RH  059%=      5-min Rain = 0
KAD1 141736Z 02003KT 07/M00 A3041 RMK A01 T00741001  RH  059%=      5-min Rain = 0
KAD1 141737Z 04002KT 07/M00 A3041 RMK A01 T00741003  RH  058%=      5-min Rain = 0
KAD1 141738Z 04005KT 07/00 A3041 RMK A01 T007400-0  RH  059%=      5-min Rain = 0
KAD1 141739Z 04005KT 08/00 A3041 RMK A01 T00780001  RH  058%=      5-min Rain = 0
KAD1 141740Z 04005KT 08/M00 A3041 RMK A01 T00781001  RH  057%=      5-min Rain = 0
KAD1 141741Z 06005KT 08/M00 A3041 RMK A01 T00771001  RH  058%=      5-min Rain = 0
KAD1 141742Z 06003KT 08/M00 A3041 RMK A01 T00751003  RH  057%=      5-min Rain = 0
KAD1 141743Z 04005KT 08/M00 A3041 RMK A01 T00751001  RH  058%=      5-min Rain = 0
KAD1 141744Z 06005KT 08/00 A3041 RMK A01 T00770000  RH  058%=      5-min Rain = 0
KAD1 141745Z 05006KT 08/M00 A3041 RMK A01 T00781001  RH  057%=      5-min Rain = 0
KAD1 141746Z 08004KT 08/M00 A3041 RMK A01 T00771001  RH  057%=      5-min Rain = 0
KAD1 141747Z 06002KT 08/M00 A3041 RMK A01 T00761003  RH  057%=      5-min Rain = 0
KAD1 141748Z 09002KT 08/M00 A3041 RMK A01 T00751003  RH  058%=      5-min Rain = 0
KAD1 141749Z 11001KT 08/M00 A3041 RMK A01 T00761001  RH  058%=      5-min Rain = 0
KAD1 141750Z 02002KT 08/00 A3041 RMK A01 T00790001  RH  058%=      5-min Rain = 0
KAD1 141751Z 03003KT 08/00 A3041 RMK A01 T00790000  RH  057%=      5-min Rain = 0
KAD1 141752Z 05005KT 08/00 A3041 RMK A01 T007900-0  RH  057%=      5-min Rain = 0
KAD1 141753Z 07006KT 08/00 A3041 RMK A01 T00800000  RH  057%=      5-min Rain = 0
KAD1 141754Z 08007KT 08/00 A3041 RMK A01 T00820001  RH  057%=      5-min Rain = 0
KAD1 141755Z 06007KT 08/00 A3041 RMK A01 T008300-0  RH  056%=      5-min Rain = 0
KAD1 141756Z 07007KT 08/M00 A3041 RMK A01 T00821001  RH  055%=      5-min Rain = 0
KAD1 141757Z 06004KT 08/M00 A3041 RMK A01 T00811002  RH  056%=      5-min Rain = 0
KAD1 141758Z 04007KT 08/00 A3041 RMK A01 T00840002  RH  056%=      5-min Rain = 0
KAD1 141759Z 04007KT 08/M00 A3041 RMK A01 T00831001  RH  056%=      5-min Rain = 0
KAD1 141800Z 03005KT 08/M00 A3041 RMK A01 T00821001  RH  056%=      5-min Rain = 0
KAD1 141801Z 04006KT 08/M00 A3041 RMK A01 T00811001  RH  056%=      5-min Rain = 0
KAD1 141802Z 04006KT 08/M00 A3041 RMK A01 T00811002  RH  056%=      5-min Rain = 0
KAD1 141803Z 06005KT 08/00 A3041 RMK A01 T00810001  RH  057%=      5-min Rain = 0
KAD1 141804Z 09006KT 08/00 A3041 RMK A01 T00830000  RH  056%=      5-min Rain = 0
KAD1 141805Z 11004KT 08/M00 A3041 RMK A01 T00821002  RH  055%=      5-min Rain = 0
KAD1 141806Z 10004KT 08/M00 A3041 RMK A01 T00811003  RH  055%=      5-min Rain = 0
KAD1 141807Z 07007KT 08/M00 A3041 RMK A01 T00811001  RH  056%=      5-min Rain = 0
KAD1 141808Z 06007KT 08/00 A3041 RMK A01 T00820000  RH  056%=      5-min Rain = 0
KAD1 141809Z 06003KT 08/M00 A3041 RMK A01 T00831001  RH  055%=      5-min Rain = 0
KAD1 141810Z 06002KT 08/M00 A3041 RMK A01 T00821003  RH  055%=      5-min Rain = 0
KAD1 141811Z 03003KT 08/M00 A3041 RMK A01 T00821003  RH  055%=      5-min Rain = 0
KAD1 141812Z 05005KT 08/M00 A3041 RMK A01 T00831001  RH  056%=      5-min Rain = 0
KAD1 141813Z 05007KT 09/00 A3041 RMK A01 T00850000  RH  055%=      5-min Rain = 0
KAD1 141814Z 03005KT 09/M00 A3041 RMK A01 T00851002  RH  054%=      5-min Rain = 0
KAD1 141815Z 05006KT 08/M00 A3041 RMK A01 T00841003  RH  054%=      5-min Rain = 0
KAD1 141816Z 07010KT 09/M00 A304 RMK A01 T00851001  RH  055%=      5-min Rain = 0
KAD1 141817Z 07010KT 09/00 A304 RMK A01 T00890001  RH  054%=      5-min Rain = 0
KAD1 141818Z 07009KT 09/M00 A304 RMK A01 T00901003  RH  052%=      5-min Rain = 0
KAD1 141819Z 07009KT 09/M01 A304 RMK A01 T00881005  RH  052%=      5-min Rain = 0
KAD1 141820Z 07007KT 09/M01 A304 RMK A01 T00861005  RH  053%=      5-min Rain = 0
KAD1 141821Z 06007KT 09/M00 A304 RMK A01 T00871001  RH  054%=      5-min Rain = 0
KAD1 141822Z 06005KT 09/M00 A304 RMK A01 T00881003  RH  053%=      5-min Rain = 0
KAD1 141823Z 05006KT 09/M00 A304 RMK A01 T00861003  RH  054%=      5-min Rain = 0
KAD1 141824Z 04003KT 09/M00 A304 RMK A01 T00861003  RH  054%=      5-min Rain = 0
KAD1 141825Z 07003KT 09/M00 A304 RMK A01 T00871001  RH  054%=      5-min Rain = 0
KAD1 141826Z 08008KT 09/00 A304 RMK A01 T00900000  RH  053%=      5-min Rain = 0
KAD1 141827Z 05005KT 09/M00 A304 RMK A01 T00921002  RH  052%=      5-min Rain = 0
KAD1 141828Z 08006KT 09/M00 A304 RMK A01 T00901004  RH  052%=      5-min Rain = 0
KAD1 141829Z 09007KT 09/M00 A304 RMK A01 T00921003  RH  052%=      5-min Rain = 0
KAD1 141830Z 08004KT 09/M01 A304 RMK A01 T00891005  RH  051%=      5-min Rain = 0
KAD1 141831Z 08008KT 09/M00 A304 RMK A01 T00881003  RH  053%=      5-min Rain = 0
KAD1 141832Z 07008KT 09/M00 A304 RMK A01 T00891003  RH  053%=      5-min Rain = 0
KAD1 141833Z 07005KT 09/M00 A304 RMK A01 T00881004  RH  052%=      5-min Rain = 0
KAD1 141834Z 07005KT 09/M00 A304 RMK A01 T00871003  RH  053%=      5-min Rain = 0
KAD1 141835Z 05006KT 09/M00 A304 RMK A01 T00881003  RH  053%=      5-min Rain = 0
KAD1 141836Z 05005KT 09/M00 A304 RMK A01 T00901002  RH  053%=      5-min Rain = 0
KAD1 141837Z 04007KT 09/M00 A304 RMK A01 T00901002  RH  052%=      5-min Rain = 0
KAD1 141838Z 04006KT 09/M00 A304 RMK A01 T00901004  RH  052%=      5-min Rain = 0
KAD1 141839Z 04003KT 09/M01 A304 RMK A01 T00881006  RH  052%=      5-min Rain = 0
KAD1 141840Z 06002KT 09/M01 A304 RMK A01 T00871006  RH  052%=      5-min Rain = 0
KAD1 141841Z 06001KT 09/M01 A304 RMK A01 T00871005  RH  053%=      5-min Rain = 0
KAD1 141842Z 07004G10KT 09/M00 A304 RMK A01 T00881004  RH  052%=      5-min Rain = 0
KAD1 141843Z 07008KT 09/M00 A304 RMK A01 T00921001  RH  052%=      5-min Rain = 0
KAD1 141844Z 05008KT 10/M00 A304 RMK A01 T00951001  RH  051%=      5-min Rain = 0
KAD1 141845Z 06008KT 10/M00 A304 RMK A01 T00951003  RH  051%=      5-min Rain = 0
KAD1 141846Z 08007KT 09/M01 A304 RMK A01 T00941005  RH  050%=      5-min Rain = 0
KAD1 141847Z 09005KT 09/M01 A304 RMK A01 T00921006  RH  050%=      5-min Rain = 0
KAD1 141848Z 05005KT 09/M00 A3039 RMK A01 T00921003  RH  051%=      5-min Rain = 0
KAD1 141849Z 06006KT 09/M00 A3039 RMK A01 T00941004  RH  050%=      5-min Rain = 0
KAD1 141850Z 08008KT 09/M00 A3039 RMK A01 T00941004  RH  051%=      5-min Rain = 0
KAD1 141851Z 08007KT 09/M01 A3039 RMK A01 T00921006  RH  050%=      5-min Rain = 0
KAD1 141852Z 09007KT 09/M01 A3039 RMK A01 T00901007  RH  051%=      5-min Rain = 0
KAD1 141853Z 10005KT 09/M00 A3039 RMK A01 T00901004  RH  052%=      5-min Rain = 0
KAD1 141854Z 09004KT 09/M00 A3039 RMK A01 T00911004  RH  051%=      5-min Rain = 0
KAD1 141855Z 06004KT 09/M01 A3039 RMK A01 T00911005  RH  051%=      5-min Rain = 0
KAD1 141856Z 09007KT 09/M00 A3039 RMK A01 T00911003  RH  051%=      5-min Rain = 0
KAD1 141857Z 10006KT 09/M00 A3039 RMK A01 T00921004  RH  051%=      5-min Rain = 0
KAD1 141858Z 11006KT 09/M00 A3039 RMK A01 T00911004  RH  051%=      5-min Rain = 0
KAD1 141859Z 11005KT 09/M00 A3039 RMK A01 T00911004  RH  051%=      5-min Rain = 0
KAD1 141900Z 13001KT 09/M01 A3039 RMK A01 T00911005  RH  051%=      5-min Rain = 0
KAD1 141901Z 08004G9KT 09/M00 A3039 RMK A01 T00911004  RH  051%=      5-min Rain = 0
KAD1 141902Z 08008KT 10/00 A3039 RMK A01 T009500-0  RH  051%=      5-min Rain = 0
KAD1 141903Z 08007KT 10/M00 A3038 RMK A01 T00961002  RH  050%=      5-min Rain = 0
KAD1 141904Z 07006KT 10/M00 A3039 RMK A01 T00951004  RH  050%=      5-min Rain = 0
KAD1 141905Z 09005KT 09/M01 A3039 RMK A01 T00931005  RH  050%=      5-min Rain = 0
KAD1 141906Z 08005KT 09/M01 A3038 RMK A01 T00931005  RH  050%=      5-min Rain = 0
KAD1 141907Z 07006KT 09/M01 A3038 RMK A01 T00931006  RH  050%=      5-min Rain = 0
KAD1 141908Z 09006KT 09/M01 A3038 RMK A01 T00931006  RH  050%=      5-min Rain = 0
KAD1 141909Z 10006KT 09/M01 A3038 RMK A01 T00941006  RH  050%=      5-min Rain = 0
KAD1 141910Z 07005KT 09/M01 A3038 RMK A01 T00941005  RH  050%=      5-min Rain = 0
KAD1 141911Z 05004KT 10/M00 A3038 RMK A01 T00971002  RH  050%=      5-min Rain = 0
KAD1 141912Z 03006KT 10/M00 A3038 RMK A01 T00971004  RH  049%=      5-min Rain = 0
KAD1 141913Z 03002KT 10/M01 A3038 RMK A01 T00951006  RH  049%=      5-min Rain = 0
KAD1 141914Z 33001KT 09/M01 A3038 RMK A01 T00941006  RH  049%=      5-min Rain = 0
KAD1 141915Z 04004KT 10/M00 A3038 RMK A01 T00961003  RH  050%=      5-min Rain = 0
KAD1 141916Z 09005KT 10/M00 A3038 RMK A01 T00981002  RH  050%=      5-min Rain = 0
KAD1 141917Z 02003KT 10/M00 A3038 RMK A01 T00991002  RH  050%=      5-min Rain = 0
KAD1 141918Z 08004KT 10/M00 A3038 RMK A01 T00991003  RH  049%=      5-min Rain = 0
KAD1 141919Z 09005KT 10/M01 A3038 RMK A01 T01001005  RH  048%=      5-min Rain = 0
KAD1 141920Z 10006KT 10/M01 A3038 RMK A01 T00991005  RH  048%=      5-min Rain = 0
KAD1 141921Z 09007KT 10/M01 A3038 RMK A01 T00981008  RH  048%=      5-min Rain = 0
KAD1 141922Z 11004KT 10/M01 A3038 RMK A01 T00951009  RH  048%=      5-min Rain = 0
KAD1 141923Z 11005KT 09/M01 A3038 RMK A01 T00941006  RH  050%=      5-min Rain = 0
KAD1 141924Z 11006KT 10/M00 A3038 RMK A01 T00981003  RH  049%=      5-min Rain = 0
KAD1 141925Z 11004KT 10/M01 A3038 RMK A01 T00981006  RH  048%=      5-min Rain = 0
KAD1 141926Z 10004KT 10/M01 A3038 RMK A01 T00971007  RH  048%=      5-min Rain = 0
KAD1 141927Z 12007KT 10/M01 A3038 RMK A01 T00981005  RH  049%=      5-min Rain = 0
KAD1 141928Z 12006KT 10/M01 A3038 RMK A01 T00981006  RH  048%=      5-min Rain = 0
KAD1 141929Z 11005KT 10/M01 A3038 RMK A01 T00981006  RH  048%=      5-min Rain = 0
KAD1 141930Z 13004KT 10/M01 A3038 RMK A01 T00981006  RH  048%=      5-min Rain = 0
KAD1 141931Z 08004KT 10/M00 A3038 RMK A01 T01001004  RH  048%=      5-min Rain = 0
KAD1 141932Z 07003KT 10/M01 A3038 RMK A01 T01001005  RH  048%=      5-min Rain = 0
KAD1 141933Z 08003KT 10/M01 A3038 RMK A01 T01001006  RH  048%=      5-min Rain = 0
KAD1 141934Z 10002KT 10/M01 A3038 RMK A01 T00991006  RH  048%=      5-min Rain = 0
KAD1 141935Z 03001KT 10/M01 A3038 RMK A01 T00981006  RH  048%=      5-min Rain = 0
KAD1 141936Z 36004KT 10/M00 A3038 RMK A01 T01001004  RH  048%=      5-min Rain = 0
KAD1 141937Z 35002KT 10/M01 A3038 RMK A01 T00991007  RH  048%=      5-min Rain = 0
KAD1 141938Z 35001KT 10/M01 A3038 RMK A01 T00981006  RH  048%=      5-min Rain = 0
KAD1 141939Z 09001KT 10/M00 A3037 RMK A01 T00991004  RH  049%=      5-min Rain = 0
KAD1 141940Z 11004KT 10/M01 A3037 RMK A01 T01011006  RH  048%=      5-min Rain = 0
KAD1 141941Z 10003KT 10/M01 A3037 RMK A01 T01021007  RH  047%=      5-min Rain = 0
KAD1 141942Z 07005KT 10/M01 A3037 RMK A01 T01041009  RH  045%=      5-min Rain = 0
KAD1 141943Z 07006KT 10/M01 A3037 RMK A01 T01041011  RH  045%=      5-min Rain = 0
KAD1 141944Z 08008KT 10/M01 A3037 RMK A01 T01031013  RH  044%=      5-min Rain = 0
KAD1 141945Z 06007KT 10/M01 A3037 RMK A01 T01031014  RH  044%=      5-min Rain = 0
KAD1 141946Z 06005KT 10/M02 A3037 RMK A01 T01021017  RH  043%=      5-min Rain = 0
KAD1 141947Z 05003KT 10/M02 A3037 RMK A01 T01001017  RH  044%=      5-min Rain = 0
KAD1 141948Z 03003KT 10/M02 A3037 RMK A01 T00991017  RH  044%=      5-min Rain = 0
KAD1 141949Z 02004KT 10/M02 A3037 RMK A01 T00991016  RH  045%=      5-min Rain = 0
KAD1 141950Z 05007KT 10/M01 A3037 RMK A01 T00991014  RH  045%=      5-min Rain = 0
KAD1 141951Z 06009KT 10/M01 A3037 RMK A01 T01001013  RH  045%=      5-min Rain = 0
KAD1 141952Z 06007KT 10/M02 A3037 RMK A01 T00991016  RH  045%=      5-min Rain = 0
KAD1 141953Z 05006KT 10/M01 A3037 RMK A01 T00981014  RH  046%=      5-min Rain = 0
KAD1 141954Z 04006KT 10/M01 A3037 RMK A01 T00991012  RH  046%=      5-min Rain = 0
KAD1 141955Z 03005KT 10/M01 A3037 RMK A01 T01001014  RH  045%=      5-min Rain = 0
KAD1 141956Z 04005KT 10/M02 A3037 RMK A01 T00991016  RH  045%=      5-min Rain = 0
KAD1 141957Z 07005KT 10/M01 A3037 RMK A01 T00981014  RH  045%=      5-min Rain = 0
KAD1 141958Z 10005KT 10/M01 A3037 RMK A01 T00991013  RH  046%=      5-min Rain = 0
KAD1 141959Z 10004KT 10/M01 A3037 RMK A01 T01011011  RH  045%=      5-min Rain = 0
KAD1 142000Z 09007KT 10/M01 A3037 RMK A01 T01031011  RH  045%=      5-min Rain = 0
KAD1 142001Z 10006KT 10/M01 A3037 RMK A01 T01021012  RH  045%=      5-min Rain = 0
KAD1 142002Z 08005KT 10/M01 A3037 RMK A01 T01031009  RH  046%=      5-min Rain = 0
KAD1 142003Z 10003KT 10/M01 A3037 RMK A01 T01041010  RH  045%=      5-min Rain = 0
KAD1 142004Z 14003KT 10/M01 A3037 RMK A01 T01041010  RH  045%=      5-min Rain = 0
KAD1 142005Z 15005KT 11/M01 A3037 RMK A01 T01061009  RH  045%=      5-min Rain = 0
KAD1 142006Z 14003KT 11/M01 A3037 RMK A01 T01061009  RH  045%=      5-min Rain = 0
KAD1 142007Z 15004KT 11/M01 A3037 RMK A01 T01061009  RH  045%=      5-min Rain = 0
KAD1 142008Z 15004KT 11/M01 A3037 RMK A01 T01061010  RH  044%=      5-min Rain = 0
KAD1 142009Z 12008KT 11/M01 A3037 RMK A01 T01061009  RH  045%=      5-min Rain = 0
KAD1 142010Z 13008KT 10/M01 A3037 RMK A01 T01041010  RH  045%=      5-min Rain = 0
KAD1 142011Z 13006KT 10/M01 A3037 RMK A01 T01031011  RH  045%=      5-min Rain = 0
KAD1 142012Z 14005KT 10/M01 A3037 RMK A01 T01021011  RH  045%=      5-min Rain = 0
KAD1 142013Z 14005KT 10/M01 A3037 RMK A01 T01021012  RH  045%=      5-min Rain = 0
KAD1 142014Z 16004KT 10/M01 A3037 RMK A01 T01021013  RH  045%=      5-min Rain = 0
KAD1 142015Z 19003KT 10/M01 A3037 RMK A01 T01021013  RH  045%=      5-min Rain = 0
KAD1 142016Z 19003KT 10/M01 A3037 RMK A01 T01031012  RH  045%=      5-min Rain = 0
KAD1 142017Z 18003KT 10/M01 A3036 RMK A01 T01041012  RH  045%=      5-min Rain = 0
KAD1 142018Z 17001KT 10/M01 A3036 RMK A01 T01041014  RH  044%=      5-min Rain = 0
KAD1 142019Z 18002KT 10/M01 A3036 RMK A01 T01041011  RH  045%=      5-min Rain = 0
KAD1 142020Z 14004KT 11/M01 A3036 RMK A01 T01061011  RH  044%=      5-min Rain = 0
KAD1 142021Z 15003KT 11/M01 A3036 RMK A01 T01061012  RH  044%=      5-min Rain = 0
KAD1 142022Z 11004KT 11/M01 A3036 RMK A01 T01061010  RH  044%=      5-min Rain = 0
KAD1 142023Z 11005KT 11/M01 A3036 RMK A01 T01061013  RH  044%=      5-min Rain = 0
KAD1 142024Z 10004KT 10/M01 A3036 RMK A01 T01041014  RH  044%=      5-min Rain = 0
KAD1 142025Z 12002KT 10/M02 A3036 RMK A01 T01021015  RH  044%=      5-min Rain = 0
KAD1 142026Z 12003KT 10/M02 A3036 RMK A01 T01021015  RH  044%=      5-min Rain = 0
KAD1 142027Z 12004KT 10/M01 A3036 RMK A01 T01021014  RH  044%=      5-min Rain = 0
KAD1 142028Z 12002KT 10/M02 A3036 RMK A01 T01031015  RH  044%=      5-min Rain = 0
KAD1 142029Z 15001KT 10/M02 A3036 RMK A01 T01021015  RH  044%=      5-min Rain = 0
KAD1 142030Z 12005KT 10/M01 A3036 RMK A01 T01041014  RH  044%=      5-min Rain = 0
KAD1 142031Z 13003KT 10/M02 A3036 RMK A01 T01041015  RH  043%=      5-min Rain = 0
KAD1 142032Z 14003KT 11/M01 A3036 RMK A01 T01051014  RH  044%=      5-min Rain = 0
KAD1 142033Z 16002KT 11/M02 A3036 RMK A01 T01051015  RH  043%=      5-min Rain = 0
KAD1 142034Z 14002KT 11/M01 A3036 RMK A01 T01051014  RH  043%=      5-min Rain = 0
KAD1 142035Z 12002KT 11/M02 A3036 RMK A01 T01051015  RH  043%=      5-min Rain = 0
KAD1 142036Z 17002KT 11/M02 A3036 RMK A01 T01061016  RH  043%=      5-min Rain = 0
KAD1 142037Z 16003KT 11/M02 A3036 RMK A01 T01071015  RH  043%=      5-min Rain = 0
KAD1 142038Z 16002KT 11/M02 A3036 RMK A01 T01081015  RH  042%=      5-min Rain = 0
KAD1 142039Z 15002KT 11/M02 A3036 RMK A01 T01061015  RH  043%=      5-min Rain = 0
KAD1 142040Z 16002KT 11/M02 A3036 RMK A01 T01071018  RH  042%=      5-min Rain = 0
KAD1 142041Z 16002KT 11/M02 A3036 RMK A01 T01071019  RH  041%=      5-min Rain = 0
KAD1 142042Z 14002KT 11/M02 A3036 RMK A01 T01071018  RH  041%=      5-min Rain = 0
KAD1 142043Z 11003KT 11/M02 A3036 RMK A01 T01081016  RH  042%=      5-min Rain = 0
KAD1 142044Z 11004KT 11/M02 A3036 RMK A01 T01071015  RH  043%=      5-min Rain = 0
KAD1 142045Z 12004KT 11/M02 A3036 RMK A01 T01051015  RH  043%=      5-min Rain = 0
KAD1 142046Z 13005KT 11/M01 A3036 RMK A01 T01051014  RH  043%=      5-min Rain = 0
KAD1 142047Z 13004KT 11/M01 A3036 RMK A01 T01051013  RH  044%=      5-min Rain = 0
KAD1 142048Z 13002KT 11/M01 A3036 RMK A01 T01061014  RH  043%=      5-min Rain = 0
KAD1 142049Z 13006KT 11/M01 A3036 RMK A01 T01061013  RH  044%=      5-min Rain = 0
KAD1 142050Z 15003KT 11/M02 A3036 RMK A01 T01061015  RH  043%=      5-min Rain = 0
KAD1 142051Z 15003KT 11/M02 A3036 RMK A01 T01051017  RH  043%=      5-min Rain = 0
KAD1 142052Z 15003KT 11/M02 A3036 RMK A01 T01051016  RH  043%=      5-min Rain = 0
KAD1 142053Z 12002KT 11/M02 A3036 RMK A01 T01061015  RH  043%=      5-min Rain = 0
KAD1 142054Z 12002KT 11/M02 A3036 RMK A01 T01061015  RH  043%=      5-min Rain = 0
KAD1 142055Z 16002KT 11/M02 A3036 RMK A01 T01061015  RH  043%=      5-min Rain = 0
KAD1 142056Z 23000KT 11/M02 A3036 RMK A01 T01071015  RH  043%=      5-min Rain = 0
KAD1 142057Z 34001KT 11/M02 A3036 RMK A01 T01081016  RH  042%=      5-min Rain = 0
KAD1 142058Z 32001KT 11/M02 A3036 RMK A01 T01081016  RH  042%=      5-min Rain = 0
KAD1 142059Z 29001KT 11/M02 A3036 RMK A01 T01081017  RH  042%=      5-min Rain = 0
KAD1 142100Z 30001KT 11/M02 A3036 RMK A01 T01071017  RH  042%=      5-min Rain = 0
KAD1 142101Z 30002KT 11/M02 A3036 RMK A01 T01071016  RH  042%=      5-min Rain = 0
KAD1 142102Z 33003KT 11/M02 A3036 RMK A01 T01081015  RH  042%=      5-min Rain = 0
KAD1 142103Z 00004KT 11/M02 A3036 RMK A01 T01091016  RH  042%=      5-min Rain = 0
KAD1 142104Z 35005KT 11/M02 A3036 RMK A01 T01081017  RH  042%=      5-min Rain = 0
KAD1 142105Z 33003KT 11/M02 A3036 RMK A01 T01061019  RH  042%=      5-min Rain = 0
KAD1 142106Z 33002KT 11/M02 A3036 RMK A01 T01051018  RH  042%=      5-min Rain = 0
KAD1 142107Z 05002KT 11/M02 A3036 RMK A01 T01051017  RH  042%=      5-min Rain = 0
KAD1 142108Z 03003KT 11/M01 A3036 RMK A01 T01071014  RH  043%=      5-min Rain = 0
KAD1 142109Z 06004KT 11/M02 A3036 RMK A01 T01091015  RH  042%=      5-min Rain = 0
KAD1 142110Z 04003KT 11/M01 A3036 RMK A01 T01081014  RH  043%=      5-min Rain = 0
KAD1 142111Z 03002KT 11/M02 A3036 RMK A01 T01071015  RH  043%=      5-min Rain = 0
KAD1 142112Z 04002KT 11/M02 A3036 RMK A01 T01061015  RH  043%=      5-min Rain = 0
KAD1 142113Z 01001KT 11/M02 A3036 RMK A01 T01051015  RH  043%=      5-min Rain = 0
KAD1 142114Z 31000KT 11/M02 A3036 RMK A01 T01051015  RH  043%=      5-min Rain = 0
KAD1 142115Z 08001KT 11/M02 A3036 RMK A01 T01051015  RH  043%=      5-min Rain = 0
KAD1 142116Z 09001KT 11/M02 A3036 RMK A01 T01061015  RH  043%=      5-min Rain = 0
KAD1 142117Z 13004KT 11/M01 A3036 RMK A01 T01061014  RH  043%=      5-min Rain = 0
KAD1 142118Z 13002KT 11/M01 A3036 RMK A01 T01081014  RH  043%=      5-min Rain = 0
KAD1 142119Z 13003KT 11/M01 A3036 RMK A01 T01081014  RH  043%=      5-min Rain = 0
KAD1 142120Z 15002KT 11/M01 A3036 RMK A01 T01091014  RH  043%=      5-min Rain = 0
KAD1 142121Z 14002KT 11/M01 A3036 RMK A01 T01091014  RH  042%=      5-min Rain = 0
KAD1 142122Z 13002KT 11/M01 A3036 RMK A01 T01091014  RH  042%=      5-min Rain = 0
KAD1 142123Z 17000KT 11/M01 A3036 RMK A01 T01091014  RH  042%=      5-min Rain = 0
KAD1 142124Z 17001KT 11/M02 A3036 RMK A01 T01111015  RH  042%=      5-min Rain = 0
KAD1 142125Z 35000KT 11/M01 A3036 RMK A01 T01121014  RH  041%=      5-min Rain = 0
KAD1 142126Z 02000KT 11/M02 A3036 RMK A01 T01131015  RH  041%=      5-min Rain = 0
KAD1 142127Z 11002KT 11/M02 A3036 RMK A01 T01131015  RH  041%=      5-min Rain = 0
KAD1 142128Z 11004KT 11/M01 A3036 RMK A01 T01131014  RH  041%=      5-min Rain = 0
KAD1 142129Z 12003KT 11/M02 A3036 RMK A01 T01121015  RH  041%=      5-min Rain = 0
KAD1 142130Z 13004KT 11/M02 A3036 RMK A01 T01101015  RH  042%=      5-min Rain = 0
KAD1 142131Z 14004KT 11/M01 A3036 RMK A01 T01091014  RH  042%=      5-min Rain = 0
KAD1 142132Z 14003KT 11/M02 A3036 RMK A01 T01091015  RH  042%=      5-min Rain = 0
KAD1 142133Z 13004KT 11/M02 A3036 RMK A01 T01091015  RH  042%=      5-min Rain = 0
KAD1 142134Z 12003KT 11/M02 A3036 RMK A01 T01081015  RH  042%=      5-min Rain = 0
KAD1 142135Z 12002KT 11/M02 A3036 RMK A01 T01071015  RH  042%=      5-min Rain = 0
KAD1 142136Z 13002KT 11/M02 A3036 RMK A01 T01071015  RH  043%=      5-min Rain = 0
KAD1 142137Z 11001KT 11/M01 A3036 RMK A01 T01081014  RH  043%=      5-min Rain = 0
KAD1 142138Z 09001KT 11/M01 A3036 RMK A01 T01101013  RH  042%=      5-min Rain = 0
KAD1 142139Z 08001KT 11/M02 A3036 RMK A01 T01101015  RH  042%=      5-min Rain = 0
KAD1 142140Z 09001KT 11/M02 A3036 RMK A01 T01091016  RH  042%=      5-min Rain = 0
KAD1 142141Z 06000KT 11/M02 A3036 RMK A01 T01091016  RH  042%=      5-min Rain = 0
KAD1 142142Z 11002KT 11/M02 A3036 RMK A01 T01091015  RH  042%=      5-min Rain = 0
KAD1 142143Z 11003KT 11/M01 A3036 RMK A01 T01101014  RH  042%=      5-min Rain = 0
KAD1 142144Z 11004KT 11/M01 A3036 RMK A01 T01111013  RH  042%=      5-min Rain = 0
KAD1 142145Z 10003KT 11/M01 A3036 RMK A01 T01111014  RH  042%=      5-min Rain = 0
KAD1 142146Z 07002KT 11/M02 A3036 RMK A01 T01101016  RH  042%=      5-min Rain = 0
KAD1 142147Z 10003KT 11/M02 A3036 RMK A01 T01081016  RH  042%=      5-min Rain = 0
KAD1 142148Z 11001KT 11/M02 A3036 RMK A01 T01071016  RH  042%=      5-min Rain = 0
KAD1 142149Z 12001KT 11/M01 A3036 RMK A01 T01081014  RH  042%=      5-min Rain = 0
KAD1 142150Z 12003KT 11/M01 A3036 RMK A01 T01111012  RH  042%=      5-min Rain = 0
KAD1 142151Z 13002KT 11/M01 A3036 RMK A01 T01121013  RH  042%=      5-min Rain = 0
KAD1 142152Z 13003KT 11/M01 A3036 RMK A01 T01111014  RH  042%=      5-min Rain = 0
KAD1 142153Z 11002KT 11/M02 A3036 RMK A01 T01101015  RH  042%=      5-min Rain = 0
KAD1 142154Z 11001KT 11/M01 A3036 RMK A01 T01101013  RH  043%=      5-min Rain = 0
KAD1 142155Z 10002KT 11/M01 A3036 RMK A01 T01111013  RH  042%=      5-min Rain = 0
KAD1 142156Z 05001KT 11/M02 A3036 RMK A01 T01111015  RH  041%=      5-min Rain = 0
KAD1 142157Z 07001KT 11/M02 A3036 RMK A01 T01111015  RH  042%=      5-min Rain = 0
KAD1 142158Z 12002KT 11/M02 A3036 RMK A01 T01111015  RH  042%=      5-min Rain = 0
KAD1 142159Z 12002KT 11/M02 A3036 RMK A01 T01101015  RH  042%=      5-min Rain = 0
KAD1 142200Z 12001KT 11/M02 A3036 RMK A01 T01091015  RH  042%=      5-min Rain = 0
KAD1 142201Z 13001KT 11/M02 A3036 RMK A01 T01091015  RH  042%=      5-min Rain = 0
KAD1 142202Z 10001KT 11/M01 A3036 RMK A01 T01101014  RH  042%=      5-min Rain = 0
KAD1 142203Z 12002KT 11/M01 A3036 RMK A01 T01121013  RH  042%=      5-min Rain = 0
KAD1 142204Z 11002KT 11/M01 A3036 RMK A01 T01121014  RH  041%=      5-min Rain = 0
KAD1 142205Z 10002KT 11/M01 A3036 RMK A01 T01121014  RH  041%=      5-min Rain = 0
KAD1 142206Z 10002KT 11/M02 A3036 RMK A01 T01111015  RH  042%=      5-min Rain = 0
KAD1 142207Z 11000KT 11/M02 A3036 RMK A01 T01101015  RH  042%=      5-min Rain = 0
KAD1 142208Z 05002KT 11/M02 A3036 RMK A01 T01101015  RH  042%=      5-min Rain = 0
KAD1 142209Z 05002KT 11/M02 A3036 RMK A01 T01101015  RH  042%=      5-min Rain = 0
KAD1 142210Z 08003KT 11/M01 A3036 RMK A01 T01111014  RH  042%=      5-min Rain = 0
KAD1 142211Z 09002KT 11/M01 A3035 RMK A01 T01111014  RH  042%=      5-min Rain = 0
KAD1 142212Z 07003KT 11/M01 A3035 RMK A01 T01111014  RH  042%=      5-min Rain = 0
KAD1 142213Z 06003KT 11/M01 A3036 RMK A01 T01111013  RH  042%=      5-min Rain = 0
KAD1 142214Z 12002KT 11/M01 A3036 RMK A01 T01131012  RH  042%=      5-min Rain = 0
KAD1 142215Z 11001KT 11/M01 A3036 RMK A01 T01131013  RH  042%=      5-min Rain = 0
KAD1 142216Z 15002KT 11/M01 A3035 RMK A01 T01131013  RH  042%=      5-min Rain = 0
KAD1 142217Z 10001KT 11/M01 A3035 RMK A01 T01131013  RH  041%=      5-min Rain = 0
KAD1 142218Z 10002KT 11/M01 A3035 RMK A01 T01141014  RH  041%=      5-min Rain = 0
KAD1 142219Z 10002KT 11/M01 A3035 RMK A01 T01141013  RH  041%=      5-min Rain = 0
KAD1 142220Z 15003KT 11/M01 A3035 RMK A01 T01141013  RH  041%=      5-min Rain = 0
KAD1 142221Z 21002KT 11/M01 A3035 RMK A01 T01141013  RH  041%=      5-min Rain = 0
KAD1 142222Z 11003KT 11/M01 A3035 RMK A01 T01141014  RH  041%=      5-min Rain = 0
KAD1 142223Z 19003KT 11/M01 A3035 RMK A01 T01131013  RH  041%=      5-min Rain = 0
KAD1 142224Z 18002KT 11/M02 A3035 RMK A01 T01131015  RH  041%=      5-min Rain = 0
KAD1 142225Z 15001KT 11/M02 A3035 RMK A01 T01131015  RH  041%=      5-min Rain = 0
KAD1 142226Z 14002KT 11/M02 A3035 RMK A01 T01131016  RH  041%=      5-min Rain = 0
KAD1 142227Z 12003KT 11/M01 A3035 RMK A01 T01141014  RH  041%=      5-min Rain = 0
KAD1 142228Z 13003KT 11/M01 A3035 RMK A01 T01131014  RH  041%=      5-min Rain = 0
KAD1 142229Z 13003KT 11/M02 A3035 RMK A01 T01121015  RH  041%=      5-min Rain = 0
KAD1 142230Z 14003KT 11/M01 A3035 RMK A01 T01121014  RH  042%=      5-min Rain = 0
KAD1 142231Z 17002KT 11/M02 A3035 RMK A01 T01111015  RH  041%=      5-min Rain = 0
KAD1 142232Z 23001KT 11/M02 A3035 RMK A01 T01121015  RH  041%=      5-min Rain = 0
KAD1 142233Z 16001KT 11/M02 A3035 RMK A01 T01131015  RH  041%=      5-min Rain = 0
KAD1 142234Z 13002KT 11/M01 A3035 RMK A01 T01141014  RH  041%=      5-min Rain = 0
KAD1 142235Z 13003KT 11/M01 A3035 RMK A01 T01141013  RH  041%=      5-min Rain = 0
KAD1 142236Z 14003KT 11/M01 A3035 RMK A01 T01141014  RH  041%=      5-min Rain = 0
KAD1 142237Z 13003KT 11/M01 A3035 RMK A01 T01131014  RH  041%=      5-min Rain = 0
KAD1 142238Z 12003KT 11/M02 A3035 RMK A01 T01121015  RH  041%=      5-min Rain = 0
KAD1 142239Z 15004KT 11/M02 A3035 RMK A01 T01111015  RH  042%=      5-min Rain = 0
KAD1 142240Z 15004KT 11/M02 A3035 RMK A01 T01101015  RH  042%=      5-min Rain = 0
KAD1 142241Z 17004KT 11/M02 A3035 RMK A01 T01101015  RH  042%=      5-min Rain = 0
KAD1 142242Z 18005KT 11/M02 A3035 RMK A01 T01111015  RH  041%=      5-min Rain = 0
KAD1 142243Z 18006KT 11/M02 A3035 RMK A01 T01111016  RH  041%=      5-min Rain = 0
KAD1 142244Z 14005KT 11/M02 A3035 RMK A01 T01111016  RH  041%=      5-min Rain = 0
KAD1 142245Z 16005KT 11/M02 A3035 RMK A01 T01111015  RH  041%=      5-min Rain = 0
KAD1 142246Z 19007KT 11/M02 A3035 RMK A01 T01111016  RH  041%=      5-min Rain = 0
KAD1 142247Z 19006KT 11/M02 A3036 RMK A01 T01111016  RH  041%=      5-min Rain = 0
KAD1 142248Z 19006KT 11/M02 A3036 RMK A01 T01111017  RH  041%=      5-min Rain = 0
KAD1 142249Z 18006KT 11/M02 A3036 RMK A01 T01101017  RH  041%=      5-min Rain = 0
KAD1 142250Z 17005KT 11/M02 A3036 RMK A01 T01101017  RH  041%=      5-min Rain = 0
KAD1 142251Z 16005KT 11/M02 A3036 RMK A01 T01101017  RH  041%=      5-min Rain = 0
KAD1 142252Z 17004KT 11/M02 A3036 RMK A01 T01101017  RH  041%=      5-min Rain = 0
KAD1 142253Z 17004KT 11/M02 A3036 RMK A01 T01101017  RH  041%=      5-min Rain = 0
KAD1 142254Z 17005KT 11/M02 A3036 RMK A01 T01091017  RH  041%=      5-min Rain = 0
KAD1 142255Z 17004KT 11/M02 A3036 RMK A01 T01091017  RH  041%=      5-min Rain = 0
KAD1 142256Z 17004KT 11/M02 A3036 RMK A01 T01091016  RH  042%=      5-min Rain = 0
KAD1 142257Z 17004KT 11/M02 A3036 RMK A01 T01101015  RH  042%=      5-min Rain = 0
KAD1 142258Z 18003KT 11/M02 A3036 RMK A01 T01101015  RH  042%=      5-min Rain = 0
KAD1 142259Z 16005KT 11/M02 A3036 RMK A01 T01091016  RH  042%=      5-min Rain = 0
KAD1 142300Z 16005KT 11/M02 A3036 RMK A01 T01091016  RH  042%=      5-min Rain = 0
KAD1 142301Z 16005KT 11/M02 A3036 RMK A01 T01091016  RH  042%=      5-min Rain = 0
KAD1 142302Z 15005KT 11/M02 A3036 RMK A01 T01091017  RH  042%=      5-min Rain = 0
KAD1 142303Z 15005KT 11/M02 A3036 RMK A01 T01081018  RH  041%=      5-min Rain = 0
KAD1 142304Z 16006KT 11/M02 A3036 RMK A01 T01081018  RH  041%=      5-min Rain = 0
KAD1 142305Z 16006KT 11/M02 A3036 RMK A01 T01071019  RH  041%=      5-min Rain = 0
KAD1 142306Z 16005KT 11/M02 A3036 RMK A01 T01071019  RH  041%=      5-min Rain = 0
KAD1 142307Z 17005KT 11/M02 A3036 RMK A01 T01071019  RH  041%=      5-min Rain = 0
KAD1 142308Z 16006KT 11/M02 A3036 RMK A01 T01061019  RH  042%=      5-min Rain = 0
KAD1 142309Z 16007KT 11/M02 A3036 RMK A01 T01061020  RH  042%=      5-min Rain = 0
KAD1 142310Z 18006KT 11/M02 A3036 RMK A01 T01051020  RH  042%=      5-min Rain = 0
KAD1 142311Z 18006KT 11/M02 A3036 RMK A01 T01051019  RH  042%=      5-min Rain = 0
KAD1 142312Z 18006KT 10/M02 A3036 RMK A01 T01041019  RH  042%=      5-min Rain = 0
KAD1 142313Z 18006KT 10/M02 A3036 RMK A01 T01041019  RH  042%=      5-min Rain = 0
KAD1 142314Z 18005KT 10/M02 A3036 RMK A01 T01041019  RH  042%=      5-min Rain = 0
KAD1 142315Z 18005KT 10/M02 A3036 RMK A01 T01041019  RH  042%=      5-min Rain = 0
KAD1 142316Z 17006KT 10/M02 A3036 RMK A01 T01031019  RH  042%=      5-min Rain = 0
KAD1 142317Z 18006KT 10/M02 A3036 RMK A01 T01031020  RH  042%=      5-min Rain = 0
KAD1 142318Z 19006KT 10/M02 A3036 RMK A01 T01021020  RH  042%=      5-min Rain = 0
KAD1 142319Z 19005KT 10/M02 A3036 RMK A01 T01021019  RH  043%=      5-min Rain = 0
KAD1 142320Z 19005KT 10/M02 A3036 RMK A01 T01011019  RH  043%=      5-min Rain = 0
KAD1 142321Z 19005KT 10/M02 A3036 RMK A01 T00991019  RH  044%=      5-min Rain = 0
KAD1 142322Z 19005KT 10/M02 A3036 RMK A01 T00971019  RH  044%=      5-min Rain = 0
KAD1 142323Z 19006KT 10/M02 A3036 RMK A01 T00961020  RH  044%=      5-min Rain = 0
KAD1 142324Z 18006KT 10/M02 A3036 RMK A01 T00951020  RH  044%=      5-min Rain = 0
KAD1 142325Z 18006KT 09/M02 A3036 RMK A01 T00941020  RH  045%=      5-min Rain = 0
KAD1 142326Z 18006KT 09/M02 A3036 RMK A01 T00931021  RH  045%=      5-min Rain = 0
KAD1 142327Z 18006KT 09/M02 A3036 RMK A01 T00921021  RH  045%=      5-min Rain = 0
KAD1 142328Z 18005KT 09/M02 A3036 RMK A01 T00911021  RH  045%=      5-min Rain = 0
KAD1 142329Z 18005KT 09/M02 A3036 RMK A01 T00901021  RH  046%=      5-min Rain = 0
KAD1 142330Z 18005KT 09/M02 A3036 RMK A01 T00891022  RH  046%=      5-min Rain = 0
KAD1 142331Z 18005KT 09/M02 A3036 RMK A01 T00881022  RH  046%=      5-min Rain = 0
KAD1 142332Z 18005KT 09/M02 A3036 RMK A01 T00871022  RH  046%=      5-min Rain = 0
KAD1 142333Z 18004KT 09/M02 A3036 RMK A01 T00861022  RH  047%=      5-min Rain = 0
KAD1 142334Z 18005KT 08/M02 A3036 RMK A01 T00841023  RH  047%=      5-min Rain = 0
KAD1 142335Z 18005KT 08/M02 A3036 RMK A01 T00821024  RH  047%=      5-min Rain = 0
KAD1 142336Z 18005KT 08/M03 A3036 RMK A01 T00791025  RH  047%=      5-min Rain = 0
KAD1 142337Z 18005KT 08/M03 A3036 RMK A01 T00771025  RH  048%=      5-min Rain = 0
KAD1 142338Z 18005KT 08/M03 A3036 RMK A01 T00761025  RH  049%=      5-min Rain = 0
KAD1 142339Z 18005KT 08/M03 A3036 RMK A01 T00751026  RH  049%=      5-min Rain = 0
KAD1 142340Z 18005KT 07/M03 A3036 RMK A01 T00731026  RH  049%=      5-min Rain = 0
KAD1 142341Z 18005KT 07/M03 A3036 RMK A01 T00711026  RH  050%=      5-min Rain = 0
KAD1 142342Z 18005KT 07/M03 A3036 RMK A01 T00701025  RH  051%=      5-min Rain = 0
KAD1 142343Z 18005KT 07/M03 A3036 RMK A01 T00711025  RH  050%=      5-min Rain = 0
KAD1 142344Z 18005KT 07/M03 A3036 RMK A01 T00691026  RH  051%=      5-min Rain = 0
KAD1 142345Z 18005KT 07/M03 A3036 RMK A01 T00671027  RH  051%=      5-min Rain = 0
KAD1 142346Z 18006KT 07/M03 A3036 RMK A01 T00651027  RH  052%=      5-min Rain = 0
KAD1 142347Z 18006KT 06/M03 A3036 RMK A01 T00631027  RH  053%=      5-min Rain = 0
KAD1 142348Z 18006KT 06/M03 A3037 RMK A01 T00631025  RH  053%=      5-min Rain = 0
KAD1 142349Z 18006KT 06/M03 A3037 RMK A01 T00641026  RH  052%=      5-min Rain = 0
KAD1 142350Z 18006KT 06/M03 A3037 RMK A01 T00631027  RH  053%=      5-min Rain = 0
KAD1 142351Z 18006KT 06/M03 A3037 RMK A01 T00621026  RH  053%=      5-min Rain = 0
KAD1 142352Z 18006KT 06/M03 A3037 RMK A01 T00631026  RH  053%=      5-min Rain = 0
KAD1 142353Z 18006KT 06/M03 A3037 RMK A01 T00631027  RH  053%=      5-min Rain = 0
KAD1 142354Z 18006KT 06/M03 A3037 RMK A01 T00621027  RH  053%=      5-min Rain = 0
KAD1 142355Z 18006KT 06/M03 A3037 RMK A01 T00621027  RH  053%=      5-min Rain = 0
KAD1 142356Z 18006KT 06/M03 A3037 RMK A01 T00621026  RH  053%=      5-min Rain = 0
KAD1 142357Z 18006KT 06/M03 A3037 RMK A01 T00631026  RH  053%=      5-min Rain = 0
KAD1 142358Z 18006KT 06/M03 A3037 RMK A01 T00631026  RH  053%=      5-min Rain = 0
KAD1 142359Z 17006KT 06/M03 A3037 RMK A01 T00631026  RH  053%=      5-min Rain = 0
KAD1 150000Z 17006KT 06/M03 A3037 RMK A01 T00621026  RH  053%=      5-min Rain = 0
KAD1 150001Z 17006KT 06/M03 A3037 RMK A01 T00611027  RH  053%=      5-min Rain = 0
KAD1 150002Z 17006KT 06/M03 A3037 RMK A01 T00591027  RH  054%=      5-min Rain = 0
KAD1 150003Z 18006KT 06/M03 A3037 RMK A01 T00571028  RH  054%=      5-min Rain = 0
KAD1 150004Z 18006KT 05/M03 A3037 RMK A01 T00541028  RH  055%=      5-min Rain = 0
KAD1 150005Z 17007KT 05/M03 A3037 RMK A01 T00541026  RH  056%=      5-min Rain = 0
KAD1 150006Z 17007KT 06/M03 A3037 RMK A01 T00561026  RH  056%=      5-min Rain = 0
KAD1 150007Z 18007KT 06/M03 A3037 RMK A01 T00561028  RH  055%=      5-min Rain = 0
KAD1 150008Z 18007KT 06/M03 A3037 RMK A01 T00561027  RH  055%=      5-min Rain = 0
KAD1 150009Z 18007KT 06/M03 A3037 RMK A01 T00551027  RH  055%=      5-min Rain = 0
KAD1 150010Z 18007KT 06/M03 A3037 RMK A01 T00551027  RH  055%=      5-min Rain = 0
KAD1 150011Z 18007KT 05/M03 A3037 RMK A01 T00541027  RH  056%=      5-min Rain = 0
KAD1 150012Z 18007KT 05/M03 A3037 RMK A01 T00531027  RH  056%=      5-min Rain = 0
KAD1 150013Z 18007KT 05/M03 A3037 RMK A01 T00531027  RH  056%=      5-min Rain = 0
KAD1 150014Z 18007KT 05/M03 A3037 RMK A01 T00531027  RH  057%=      5-min Rain = 0
KAD1 150015Z 18007KT 05/M03 A3037 RMK A01 T00531027  RH  057%=      5-min Rain = 0
KAD1 150016Z 17007KT 05/M03 A3037 RMK A01 T00521026  RH  057%=      5-min Rain = 0
KAD1 150017Z 17007KT 05/M03 A3037 RMK A01 T00521026  RH  057%=      5-min Rain = 0
KAD1 150018Z 17007KT 05/M03 A3037 RMK A01 T00531027  RH  056%=      5-min Rain = 0
KAD1 150019Z 17008KT 05/M03 A3037 RMK A01 T00531028  RH  056%=      5-min Rain = 0
KAD1 150020Z 17008KT 05/M03 A3037 RMK A01 T00531028  RH  056%=      5-min Rain = 0
KAD1 150021Z 18008KT 05/M03 A3037 RMK A01 T00531029  RH  055%=      5-min Rain = 0
KAD1 150022Z 18008KT 05/M03 A3037 RMK A01 T00531029  RH  055%=      5-min Rain = 0
KAD1 150023Z 18008KT 05/M03 A3037 RMK A01 T00521030  RH  056%=      5-min Rain = 0
KAD1 150024Z 17008KT 05/M03 A3037 RMK A01 T00511030  RH  056%=      5-min Rain = 0
KAD1 150025Z 17008KT 05/M03 A3037 RMK A01 T00501031  RH  056%=      5-min Rain = 0
KAD1 150026Z 17008KT 05/M03 A3037 RMK A01 T00501031  RH  056%=      5-min Rain = 0
KAD1 150027Z 17008KT 05/M03 A3037 RMK A01 T00491031  RH  056%=      5-min Rain = 0
KAD1 150028Z 17008KT 05/M03 A3037 RMK A01 T00491031  RH  056%=      5-min Rain = 0
KAD1 150029Z 17008KT 05/M03 A3037 RMK A01 T00491031  RH  056%=      5-min Rain = 0
KAD1 150030Z 17008KT 05/M03 A3037 RMK A01 T00491031  RH  056%=      5-min Rain = 0
KAD1 150031Z 17008KT 05/M03 A3037 RMK A01 T00491031  RH  057%=      5-min Rain = 0
KAD1 150032Z 17008KT 05/M03 A3037 RMK A01 T00491031  RH  056%=      5-min Rain = 0
KAD1 150033Z 17008KT 05/M03 A3038 RMK A01 T00491031  RH  056%=      5-min Rain = 0
KAD1 150034Z 17008KT 05/M03 A3038 RMK A01 T00491031  RH  056%=      5-min Rain = 0
KAD1 150035Z 17008KT 05/M03 A3038 RMK A01 T00491031  RH  056%=      5-min Rain = 0
KAD1 150036Z 17009KT 05/M03 A3038 RMK A01 T00491031  RH  056%=      5-min Rain = 0
KAD1 150037Z 17009KT 05/M03 A3038 RMK A01 T00491031  RH  056%=      5-min Rain = 0
KAD1 150038Z 17009KT 05/M03 A3038 RMK A01 T00501030  RH  056%=      5-min Rain = 0
KAD1 150039Z 18009KT 05/M03 A3038 RMK A01 T00501030  RH  056%=      5-min Rain = 0
KAD1 150040Z 17009KT 05/M03 A3038 RMK A01 T00501031  RH  056%=      5-min Rain = 0
KAD1 150041Z 17009KT 05/M03 A3038 RMK A01 T00511030  RH  056%=      5-min Rain = 0
KAD1 150042Z 17009KT 05/M03 A3038 RMK A01 T00511030  RH  056%=      5-min Rain = 0
KAD1 150043Z 17009KT 05/M03 A3038 RMK A01 T00501030  RH  056%=      5-min Rain = 0
KAD1 150044Z 17009KT 05/M03 A3038 RMK A01 T00501030  RH  056%=      5-min Rain = 0
KAD1 150045Z 17009KT 05/M03 A3038 RMK A01 T00501030  RH  056%=      5-min Rain = 0
KAD1 150046Z 17009KT 05/M03 A3038 RMK A01 T00491030  RH  057%=      5-min Rain = 0
KAD1 150047Z 17009KT 05/M03 A3038 RMK A01 T00491030  RH  057%=      5-min Rain = 0
KAD1 150048Z 17009KT 05/M03 A3038 RMK A01 T00491030  RH  057%=      5-min Rain = 0
KAD1 150049Z 17009KT 05/M03 A3038 RMK A01 T00481029  RH  057%=      5-min Rain = 0
KAD1 150050Z 17009KT 05/M03 A3038 RMK A01 T00471030  RH  057%=      5-min Rain = 0
KAD1 150051Z 17010KT 05/M03 A3038 RMK A01 T00471030  RH  058%=      5-min Rain = 0
KAD1 150052Z 17009KT 05/M03 A3038 RMK A01 T00461030  RH  058%=      5-min Rain = 0
KAD1 150053Z 17009KT 05/M03 A3038 RMK A01 T00461029  RH  058%=      5-min Rain = 0
KAD1 150054Z 17009KT 05/M03 A3038 RMK A01 T00461029  RH  058%=      5-min Rain = 0
KAD1 150055Z 17009KT 05/M03 A3038 RMK A01 T00461029  RH  058%=      5-min Rain = 0
KAD1 150056Z 17009KT 05/M03 A3038 RMK A01 T00461029  RH  058%=      5-min Rain = 0
KAD1 150057Z 17009KT 05/M03 A3038 RMK A01 T00461029  RH  058%=      5-min Rain = 0
KAD1 150058Z 18009KT 05/M03 A3038 RMK A01 T00451030  RH  058%=      5-min Rain = 0
KAD1 150059Z 17009KT 05/M03 A3038 RMK A01 T00451030  RH  058%=      5-min Rain = 0
KAD1 150100Z 17009KT 04/M03 A3038 RMK A01 T00441030  RH  058%=      5-min Rain = 0
KAD1 150101Z 17009KT 04/M03 A3038 RMK A01 T00441030  RH  059%=      5-min Rain = 0
KAD1 150102Z 17009KT 04/M03 A3038 RMK A01 T00441030  RH  059%=      5-min Rain = 0
KAD1 150103Z 17009KT 04/M03 A3038 RMK A01 T00441029  RH  059%=      5-min Rain = 0
KAD1 150104Z 17009KT 04/M03 A3038 RMK A01 T00441029  RH  059%=      5-min Rain = 0
KAD1 150105Z 17009KT 05/M03 A3038 RMK A01 T00451029  RH  059%=      5-min Rain = 0
KAD1 150106Z 17009KT 05/M03 A3038 RMK A01 T00451029  RH  059%=      5-min Rain = 0
KAD1 150107Z 17009KT 05/M03 A3038 RMK A01 T00451029  RH  059%=      5-min Rain = 0
KAD1 150108Z 17009KT 05/M03 A3038 RMK A01 T00451029  RH  059%=      5-min Rain = 0
KAD1 150109Z 17010KT 05/M03 A3038 RMK A01 T00451029  RH  059%=      5-min Rain = 0
KAD1 150110Z 17010KT 04/M03 A3038 RMK A01 T00441029  RH  059%=      5-min Rain = 0
KAD1 150111Z 17010KT 04/M03 A3038 RMK A01 T00441028  RH  059%=      5-min Rain = 0
KAD1 150112Z 17010KT 04/M03 A3038 RMK A01 T00441028  RH  059%=      5-min Rain = 0
KAD1 150113Z 17009KT 05/M03 A3038 RMK A01 T00451028  RH  059%=      5-min Rain = 0
KAD1 150114Z 17009KT 05/M03 A3038 RMK A01 T00451028  RH  059%=      5-min Rain = 0
KAD1 150115Z 17009KT 05/M03 A3038 RMK A01 T00451028  RH  059%=      5-min Rain = 0
KAD1 150116Z 17009KT 05/M03 A3038 RMK A01 T00451027  RH  059%=      5-min Rain = 0
KAD1 150117Z 17009KT 05/M03 A3038 RMK A01 T00451028  RH  059%=      5-min Rain = 0
KAD1 150118Z 17009KT 04/M03 A3038 RMK A01 T00441028  RH  060%=      5-min Rain = 0
KAD1 150119Z 17010KT 05/M03 A3038 RMK A01 T00451027  RH  060%=      5-min Rain = 0
KAD1 150120Z 17010KT 04/M03 A3038 RMK A01 T00441027  RH  060%=      5-min Rain = 0
KAD1 150121Z 17010KT 04/M03 A3038 RMK A01 T00441027  RH  060%=      5-min Rain = 0
KAD1 150122Z 17010KT 04/M03 A3038 RMK A01 T00441027  RH  060%=      5-min Rain = 0
KAD1 150123Z 17010KT 04/M03 A3038 RMK A01 T00441027  RH  060%=      5-min Rain = 0
KAD1 150124Z 17010KT 04/M03 A3038 RMK A01 T00441027  RH  060%=      5-min Rain = 0
KAD1 150125Z 17010KT 04/M03 A3038 RMK A01 T00441027  RH  060%=      5-min Rain = 0
KAD1 150126Z 17009KT 04/M03 A3038 RMK A01 T00441027  RH  060%=      5-min Rain = 0
KAD1 150127Z 17010KT 04/M03 A3038 RMK A01 T00441026  RH  060%=      5-min Rain = 0
KAD1 150128Z 17010KT 04/M03 A3038 RMK A01 T00441026  RH  060%=      5-min Rain = 0
KAD1 150129Z 17010KT 04/M03 A3038 RMK A01 T00441026  RH  061%=      5-min Rain = 0
KAD1 150130Z 17010KT 04/M03 A3038 RMK A01 T00431026  RH  060%=      5-min Rain = 0
KAD1 150131Z 17010KT 04/M03 A3038 RMK A01 T00431027  RH  061%=      5-min Rain = 0
KAD1 150132Z 17010KT 04/M03 A3038 RMK A01 T00431026  RH  061%=      5-min Rain = 0
KAD1 150133Z 17010KT 04/M03 A3038 RMK A01 T00431026  RH  061%=      5-min Rain = 0
KAD1 150134Z 17010KT 04/M03 A3038 RMK A01 T00431026  RH  060%=      5-min Rain = 0
KAD1 150135Z 17010KT 04/M03 A3038 RMK A01 T00431026  RH  061%=      5-min Rain = 0
KAD1 150136Z 17010KT 04/M03 A3038 RMK A01 T00431026  RH  061%=      5-min Rain = 0
KAD1 150137Z 17009KT 04/M03 A3038 RMK A01 T00421027  RH  061%=      5-min Rain = 0
KAD1 150138Z 17009KT 04/M03 A3038 RMK A01 T00421027  RH  061%=      5-min Rain = 0
KAD1 150139Z 17009KT 04/M03 A3038 RMK A01 T00411027  RH  061%=      5-min Rain = 0
KAD1 150140Z 17009KT 04/M03 A3038 RMK A01 T00401027  RH  061%=      5-min Rain = 0
KAD1 150141Z 17009KT 04/M03 A3038 RMK A01 T00401027  RH  062%=      5-min Rain = 0
KAD1 150142Z 17010KT 04/M03 A3038 RMK A01 T00401027  RH  062%=      5-min Rain = 0
KAD1 150143Z 17010KT 04/M03 A3038 RMK A01 T00401027  RH  062%=      5-min Rain = 0
KAD1 150144Z 18010KT 04/M03 A3038 RMK A01 T00391027  RH  062%=      5-min Rain = 0
KAD1 150145Z 17010KT 04/M03 A3038 RMK A01 T00401027  RH  062%=      5-min Rain = 0
KAD1 150146Z 17010KT 04/M03 A3038 RMK A01 T00391027  RH  062%=      5-min Rain = 0
KAD1 150147Z 18009KT 04/M03 A3038 RMK A01 T00391027  RH  062%=      5-min Rain = 0
KAD1 150148Z 17010KT 04/M03 A3038 RMK A01 T00391027  RH  062%=      5-min Rain = 0
KAD1 150149Z 17010KT 04/M03 A3038 RMK A01 T00391028  RH  062%=      5-min Rain = 0
KAD1 150150Z 18010KT 04/M03 A3038 RMK A01 T00381028  RH  062%=      5-min Rain = 0
KAD1 150151Z 17010KT 04/M03 A3038 RMK A01 T00371028  RH  063%=      5-min Rain = 0
KAD1 150152Z 17010KT 04/M03 A3038 RMK A01 T00371027  RH  063%=      5-min Rain = 0
KAD1 150153Z 18010KT 04/M03 A3038 RMK A01 T00371027  RH  063%=      5-min Rain = 0
KAD1 150154Z 18010KT 04/M03 A3038 RMK A01 T00371027  RH  063%=      5-min Rain = 0
KAD1 150155Z 18010KT 04/M03 A3038 RMK A01 T00371027  RH  063%=      5-min Rain = 0
KAD1 150156Z 18010KT 04/M03 A3038 RMK A01 T00371027  RH  063%=      5-min Rain = 0
KAD1 150157Z 18010KT 04/M03 A3039 RMK A01 T00371027  RH  063%=      5-min Rain = 0
KAD1 150158Z 18010KT 04/M03 A3039 RMK A01 T00371027  RH  063%=      5-min Rain = 0
KAD1 150159Z 18009KT 04/M03 A3039 RMK A01 T00381027  RH  062%=      5-min Rain = 0
KAD1 150200Z 18010KT 04/M03 A3039 RMK A01 T00381028  RH  062%=      5-min Rain = 0
KAD1 150201Z 18009KT 04/M03 A3039 RMK A01 T00381028  RH  062%=      5-min Rain = 0
KAD1 150202Z 18010KT 04/M03 A3039 RMK A01 T00381028  RH  062%=      5-min Rain = 0
KAD1 150203Z 18010KT 04/M03 A3039 RMK A01 T00381027  RH  062%=      5-min Rain = 0
KAD1 150204Z 18010KT 04/M03 A3039 RMK A01 T00381027  RH  062%=      5-min Rain = 0
KAD1 150205Z 18010KT 04/M03 A3039 RMK A01 T00381027  RH  063%=      5-min Rain = 0
KAD1 150206Z 18010KT 04/M03 A3039 RMK A01 T00381027  RH  063%=      5-min Rain = 0
KAD1 150207Z 18010KT 04/M03 A3039 RMK A01 T00381027  RH  063%=      5-min Rain = 0
KAD1 150208Z 18010KT 04/M03 A3039 RMK A01 T00381027  RH  063%=      5-min Rain = 0
KAD1 150209Z 18010KT 04/M03 A3039 RMK A01 T00371028  RH  063%=      5-min Rain = 0
KAD1 150210Z 18010KT 04/M03 A3039 RMK A01 T00371027  RH  063%=      5-min Rain = 0
KAD1 150211Z 18011KT 04/M03 A3039 RMK A01 T00371027  RH  063%=      5-min Rain = 0
KAD1 150212Z 18010KT 04/M03 A3039 RMK A01 T00371027  RH  063%=      5-min Rain = 0
KAD1 150213Z 18010KT 04/M03 A3039 RMK A01 T00371028  RH  063%=      5-min Rain = 0
KAD1 150214Z 18010KT 04/M03 A3039 RMK A01 T00371028  RH  063%=      5-min Rain = 0
KAD1 150215Z 18010KT 04/M03 A3039 RMK A01 T00361028  RH  063%=      5-min Rain = 0
KAD1 150216Z 18010KT 04/M03 A3039 RMK A01 T00361028  RH  063%=      5-min Rain = 0
KAD1 150217Z 18010KT 04/M03 A3039 RMK A01 T00361028  RH  063%=      5-min Rain = 0
KAD1 150218Z 18010KT 04/M03 A3039 RMK A01 T00351028  RH  063%=      5-min Rain = 0
KAD1 150219Z 18010KT 04/M03 A3039 RMK A01 T00351029  RH  063%=      5-min Rain = 0
KAD1 150220Z 18010KT 04/M03 A3039 RMK A01 T00351028  RH  063%=      5-min Rain = 0
KAD1 150221Z 18010KT 04/M03 A3039 RMK A01 T00351029  RH  063%=      5-min Rain = 0
KAD1 150222Z 18010KT 04/M03 A3039 RMK A01 T00351029  RH  063%=      5-min Rain = 0
KAD1 150223Z 18010KT 04/M03 A3039 RMK A01 T00351028  RH  063%=      5-min Rain = 0
KAD1 150224Z 18010KT 04/M03 A3039 RMK A01 T00351029  RH  063%=      5-min Rain = 0
KAD1 150225Z 18010KT 03/M03 A3039 RMK A01 T00341029  RH  063%=      5-min Rain = 0
KAD1 150226Z 18010KT 03/M03 A3039 RMK A01 T00341029  RH  063%=      5-min Rain = 0
KAD1 150227Z 18010KT 03/M03 A3039 RMK A01 T00331030  RH  063%=      5-min Rain = 0
KAD1 150228Z 18010KT 03/M03 A3039 RMK A01 T00321030  RH  064%=      5-min Rain = 0
KAD1 150229Z 18011KT 03/M03 A3039 RMK A01 T00311030  RH  064%=      5-min Rain = 0
KAD1 150230Z 18011KT 03/M03 A3039 RMK A01 T00311030  RH  064%=      5-min Rain = 0
KAD1 150231Z 18011KT 03/M03 A3039 RMK A01 T00301030  RH  064%=      5-min Rain = 0
KAD1 150232Z 18011KT 03/M03 A3039 RMK A01 T00301031  RH  064%=      5-min Rain = 0
KAD1 150233Z 18011KT 03/M03 A3039 RMK A01 T00301031  RH  065%=      5-min Rain = 0
KAD1 150234Z 18011KT 03/M03 A3039 RMK A01 T00291031  RH  065%=      5-min Rain = 0
KAD1 150235Z 18011KT 03/M03 A3039 RMK A01 T00281031  RH  065%=      5-min Rain = 0
KAD1 150236Z 18011KT 03/M03 A3039 RMK A01 T00271031  RH  065%=      5-min Rain = 0
KAD1 150237Z 18011KT 03/M03 A3039 RMK A01 T00261031  RH  066%=      5-min Rain = 0
KAD1 150238Z 18011KT 03/M03 A3039 RMK A01 T00261031  RH  066%=      5-min Rain = 0
KAD1 150239Z 18011KT 03/M03 A3039 RMK A01 T00251032  RH  066%=      5-min Rain = 0
KAD1 150240Z 18011KT 03/M03 A3039 RMK A01 T00251032  RH  066%=      5-min Rain = 0
KAD1 150241Z 18011KT 02/M03 A3039 RMK A01 T00241033  RH  066%=      5-min Rain = 0
KAD1 150242Z 19011KT 02/M03 A3039 RMK A01 T00241032  RH  066%=      5-min Rain = 0
KAD1 150243Z 19011KT 02/M03 A3039 RMK A01 T00241032  RH  067%=      5-min Rain = 0
KAD1 150244Z 18011KT 02/M03 A3039 RMK A01 T00221032  RH  067%=      5-min Rain = 0
KAD1 150245Z 18011KT 02/M03 A3039 RMK A01 T00221032  RH  067%=      5-min Rain = 0
KAD1 150246Z 18011KT 02/M03 A3039 RMK A01 T00231032  RH  067%=      5-min Rain = 0
KAD1 150247Z 18011KT 02/M03 A3039 RMK A01 T00231032  RH  067%=      5-min Rain = 0
KAD1 150248Z 18011KT 02/M03 A3039 RMK A01 T00231032  RH  067%=      5-min Rain = 0
KAD1 150249Z 18012KT 02/M03 A3039 RMK A01 T00241032  RH  067%=      5-min Rain = 0
KAD1 150250Z 18012KT 02/M03 A3039 RMK A01 T00241031  RH  067%=      5-min Rain = 0
KAD1 150251Z 18012KT 03/M03 A3039 RMK A01 T00261031  RH  066%=      5-min Rain = 0
KAD1 150252Z 19012KT 03/M03 A3039 RMK A01 T00261031  RH  066%=      5-min Rain = 0
KAD1 150253Z 19011KT 03/M03 A3039 RMK A01 T00261031  RH  066%=      5-min Rain = 0
KAD1 150254Z 19012KT 03/M03 A3039 RMK A01 T00261031  RH  066%=      5-min Rain = 0
KAD1 150255Z 18011KT 03/M03 A3039 RMK A01 T00271031  RH  066%=      5-min Rain = 0
KAD1 150256Z 19012KT 03/M03 A3039 RMK A01 T00271031  RH  066%=      5-min Rain = 0
KAD1 150257Z 18011KT 03/M03 A3039 RMK A01 T00271031  RH  066%=      5-min Rain = 0
KAD1 150258Z 18011KT 03/M03 A3039 RMK A01 T00271031  RH  066%=      5-min Rain = 0
KAD1 150259Z 18011KT 03/M03 A304 RMK A01 T00271030  RH  066%=      5-min Rain = 0
KAD1 150300Z 18011KT 03/M03 A304 RMK A01 T00271031  RH  066%=      5-min Rain = 0
KAD1 150301Z 18011KT 03/M03 A304 RMK A01 T00271031  RH  066%=      5-min Rain = 0
KAD1 150302Z 18011KT 03/M03 A304 RMK A01 T00271031  RH  066%=      5-min Rain = 0
KAD1 150303Z 18010KT 03/M03 A304 RMK A01 T00271031  RH  065%=      5-min Rain = 0
KAD1 150304Z 19011KT 03/M03 A304 RMK A01 T00271031  RH  065%=      5-min Rain = 0
KAD1 150305Z 19011KT 03/M03 A304 RMK A01 T00261032  RH  065%=      5-min Rain = 0
KAD1 150306Z 19010KT 03/M03 A304 RMK A01 T00251033  RH  066%=      5-min Rain = 0
KAD1 150307Z 18010KT 03/M03 A304 RMK A01 T00251033  RH  066%=      5-min Rain = 0
KAD1 150308Z 18010KT 03/M03 A304 RMK A01 T00251033  RH  066%=      5-min Rain = 0
KAD1 150309Z 18010KT 02/M03 A304 RMK A01 T00241033  RH  066%=      5-min Rain = 0
KAD1 150310Z 19010KT 02/M03 A304 RMK A01 T00231033  RH  066%=      5-min Rain = 0
KAD1 150311Z 19010KT 02/M03 A304 RMK A01 T00231033  RH  066%=      5-min Rain = 0
KAD1 150312Z 19010KT 02/M03 A304 RMK A01 T00231033  RH  067%=      5-min Rain = 0
KAD1 150313Z 19010KT 02/M03 A304 RMK A01 T00221033  RH  067%=      5-min Rain = 0
KAD1 150314Z 19010KT 02/M03 A304 RMK A01 T00211033  RH  067%=      5-min Rain = 0
KAD1 150315Z 19011KT 02/M03 A304 RMK A01 T00201033  RH  068%=      5-min Rain = 0
KAD1 150316Z 19011KT 02/M03 A304 RMK A01 T00201032  RH  068%=      5-min Rain = 0
KAD1 150317Z 19011KT 02/M03 A304 RMK A01 T00201032  RH  069%=      5-min Rain = 0
KAD1 150318Z 19011KT 02/M03 A304 RMK A01 T00201032  RH  069%=      5-min Rain = 0
KAD1 150319Z 19011KT 02/M03 A304 RMK A01 T00201031  RH  069%=      5-min Rain = 0
KAD1 150320Z 19011KT 02/M03 A304 RMK A01 T00201031  RH  069%=      5-min Rain = 0
KAD1 150321Z 19011KT 02/M03 A304 RMK A01 T00201030  RH  069%=      5-min Rain = 0
KAD1 150322Z 19010KT 02/M03 A304 RMK A01 T00211029  RH  069%=      5-min Rain = 0
KAD1 150323Z 19010KT 02/M03 A304 RMK A01 T00211029  RH  069%=      5-min Rain = 0
KAD1 150324Z 19011KT 02/M03 A304 RMK A01 T00211029  RH  069%=      5-min Rain = 0
KAD1 150325Z 19011KT 02/M03 A304 RMK A01 T00211029  RH  069%=      5-min Rain = 0
KAD1 150326Z 19010KT 02/M03 A304 RMK A01 T00211029  RH  069%=      5-min Rain = 0
KAD1 150327Z 19010KT 02/M03 A304 RMK A01 T00211029  RH  070%=      5-min Rain = 0
KAD1 150328Z 19010KT 02/M03 A304 RMK A01 T00211029  RH  070%=      5-min Rain = 0
KAD1 150329Z 19011KT 02/M03 A304 RMK A01 T00211028  RH  070%=      5-min Rain = 0
KAD1 150330Z 19011KT 02/M03 A304 RMK A01 T00211028  RH  070%=      5-min Rain = 0
KAD1 150331Z 19011KT 02/M03 A304 RMK A01 T00221028  RH  070%=      5-min Rain = 0
KAD1 150332Z 19011KT 02/M03 A304 RMK A01 T00221027  RH  070%=      5-min Rain = 0
KAD1 150333Z 19011KT 02/M03 A304 RMK A01 T00231027  RH  069%=      5-min Rain = 0
KAD1 150334Z 19011KT 02/M03 A304 RMK A01 T00231027  RH  069%=      5-min Rain = 0
KAD1 150335Z 19011KT 02/M03 A304 RMK A01 T00231028  RH  069%=      5-min Rain = 0
KAD1 150336Z 19011KT 02/M03 A304 RMK A01 T00221028  RH  069%=      5-min Rain = 0
KAD1 150337Z 19011KT 02/M03 A304 RMK A01 T00221028  RH  069%=      5-min Rain = 0
KAD1 150338Z 19011KT 02/M03 A304 RMK A01 T00221028  RH  070%=      5-min Rain = 0
KAD1 150339Z 19012KT 02/M03 A304 RMK A01 T00221028  RH  070%=      5-min Rain = 0
KAD1 150340Z 19011KT 02/M03 A304 RMK A01 T00221028  RH  070%=      5-min Rain = 0
KAD1 150341Z 19012KT 02/M03 A304 RMK A01 T00221028  RH  070%=      5-min Rain = 0
KAD1 150342Z 19011KT 02/M03 A304 RMK A01 T00221027  RH  070%=      5-min Rain = 0
KAD1 150343Z 19012KT 02/M03 A304 RMK A01 T00221028  RH  070%=      5-min Rain = 0
KAD1 150344Z 19012KT 02/M03 A304 RMK A01 T00221028  RH  070%=      5-min Rain = 0
KAD1 150345Z 19012KT 02/M03 A304 RMK A01 T00231028  RH  069%=      5-min Rain = 0
KAD1 150346Z 19012KT 02/M03 A304 RMK A01 T00231028  RH  069%=      5-min Rain = 0
KAD1 150347Z 19012KT 02/M03 A304 RMK A01 T00221028  RH  069%=      5-min Rain = 0
KAD1 150348Z 19012KT 02/M03 A304 RMK A01 T00221028  RH  069%=      5-min Rain = 0
KAD1 150349Z 19012KT 02/M03 A304 RMK A01 T00211029  RH  069%=      5-min Rain = 0
KAD1 150350Z 19012KT 02/M03 A304 RMK A01 T00211029  RH  070%=      5-min Rain = 0
KAD1 150351Z 19012KT 02/M03 A304 RMK A01 T00201030  RH  070%=      5-min Rain = 0
KAD1 150352Z 19012KT 02/M03 A304 RMK A01 T00191030  RH  070%=      5-min Rain = 0
KAD1 150353Z 19012KT 02/M03 A304 RMK A01 T00191030  RH  070%=      5-min Rain = 0
KAD1 150354Z 19012KT 02/M03 A304 RMK A01 T00181030  RH  071%=      5-min Rain = 0
KAD1 150355Z 19012KT 02/M03 A304 RMK A01 T00181030  RH  071%=      5-min Rain = 0
KAD1 150356Z 19012KT 02/M03 A304 RMK A01 T00171030  RH  071%=      5-min Rain = 0
KAD1 150357Z 19011KT 02/M03 A304 RMK A01 T00171030  RH  071%=      5-min Rain = 0
KAD1 150358Z 19011KT 02/M03 A304 RMK A01 T00161031  RH  071%=      5-min Rain = 0
KAD1 150359Z 19012KT 02/M03 A304 RMK A01 T00151031  RH  071%=      5-min Rain = 0
KAD1 150400Z 19011KT 02/M03 A304 RMK A01 T00151031  RH  072%=      5-min Rain = 0
KAD1 150401Z 19012KT 01/M03 A304 RMK A01 T00141031  RH  072%=      5-min Rain = 0
KAD1 150402Z 19012KT 01/M03 A304 RMK A01 T00141031  RH  072%=      5-min Rain = 0
KAD1 150403Z 19012KT 01/M03 A304 RMK A01 T00141031  RH  072%=      5-min Rain = 0
KAD1 150404Z 19012KT 01/M03 A304 RMK A01 T00141030  RH  072%=      5-min Rain = 0
KAD1 150405Z 19012KT 01/M03 A304 RMK A01 T00141030  RH  072%=      5-min Rain = 0
KAD1 150406Z 19012KT 01/M03 A304 RMK A01 T00141030  RH  073%=      5-min Rain = 0
KAD1 150407Z 19012KT 01/M03 A304 RMK A01 T00131030  RH  073%=      5-min Rain = 0
KAD1 150408Z 19013KT 01/M03 A304 RMK A01 T00141030  RH  073%=      5-min Rain = 0
KAD1 150409Z 19012KT 01/M03 A304 RMK A01 T00141030  RH  073%=      5-min Rain = 0
KAD1 150410Z 19012KT 01/M03 A304 RMK A01 T00141029  RH  073%=      5-min Rain = 0
KAD1 150411Z 19012KT 01/M03 A304 RMK A01 T00141029  RH  073%=      5-min Rain = 0
KAD1 150412Z 19013KT 02/M03 A304 RMK A01 T00151029  RH  073%=      5-min Rain = 0
KAD1 150413Z 19012KT 02/M03 A304 RMK A01 T00151029  RH  072%=      5-min Rain = 0
KAD1 150414Z 19012KT 02/M03 A304 RMK A01 T00161029  RH  072%=      5-min Rain = 0
KAD1 150415Z 19012KT 02/M03 A304 RMK A01 T00151029  RH  072%=      5-min Rain = 0
KAD1 150416Z 19012KT 02/M03 A304 RMK A01 T00151029  RH  072%=      5-min Rain = 0
KAD1 150417Z 19012KT 02/M03 A304 RMK A01 T00151029  RH  072%=      5-min Rain = 0
KAD1 150418Z 19012KT 02/M03 A304 RMK A01 T00151029  RH  072%=      5-min Rain = 0
KAD1 150419Z 19012KT 02/M03 A304 RMK A01 T00151029  RH  072%=      5-min Rain = 0
KAD1 150420Z 19012KT 02/M03 A304 RMK A01 T00151029  RH  072%=      5-min Rain = 0
KAD1 150421Z 19012KT 02/M03 A304 RMK A01 T00151030  RH  072%=      5-min Rain = 0
KAD1 150422Z 18011KT 02/M03 A304 RMK A01 T00151030  RH  072%=      5-min Rain = 0
KAD1 150423Z 19012KT 01/M03 A304 RMK A01 T00141030  RH  072%=      5-min Rain = 0
KAD1 150424Z 19012KT 01/M03 A304 RMK A01 T00141030  RH  072%=      5-min Rain = 0
KAD1 150425Z 19012KT 02/M03 A304 RMK A01 T00151029  RH  073%=      5-min Rain = 0
KAD1 150426Z 19012KT 01/M03 A304 RMK A01 T00141029  RH  073%=      5-min Rain = 0
KAD1 150427Z 19012KT 01/M03 A304 RMK A01 T00141029  RH  073%=      5-min Rain = 0
KAD1 150428Z 19012KT 01/M03 A304 RMK A01 T00141028  RH  073%=      5-min Rain = 0
KAD1 150429Z 19012KT 02/M03 A304 RMK A01 T00151028  RH  073%=      5-min Rain = 0
KAD1 150430Z 19011KT 01/M03 A304 RMK A01 T00141028  RH  073%=      5-min Rain = 0
KAD1 150431Z 19011KT 01/M03 A304 RMK A01 T00141029  RH  073%=      5-min Rain = 0
KAD1 150432Z 19011KT 01/M03 A304 RMK A01 T00131028  RH  074%=      5-min Rain = 0
KAD1 150433Z 19011KT 01/M03 A304 RMK A01 T00131028  RH  074%=      5-min Rain = 0
KAD1 150434Z 19012KT 01/M03 A304 RMK A01 T00121029  RH  074%=      5-min Rain = 0
KAD1 150435Z 19012KT 01/M03 A304 RMK A01 T00121029  RH  074%=      5-min Rain = 0
KAD1 150436Z 19012KT 01/M03 A304 RMK A01 T00121028  RH  074%=      5-min Rain = 0
KAD1 150437Z 19012KT 01/M03 A304 RMK A01 T00121028  RH  074%=      5-min Rain = 0
KAD1 150438Z 19012KT 01/M03 A304 RMK A01 T00131028  RH  074%=      5-min Rain = 0
KAD1 150439Z 19012KT 01/M03 A304 RMK A01 T00141028  RH  074%=      5-min Rain = 0
KAD1 150440Z 19012KT 01/M03 A304 RMK A01 T00141028  RH  074%=      5-min Rain = 0
KAD1 150441Z 19011KT 01/M03 A304 RMK A01 T00131028  RH  074%=      5-min Rain = 0
KAD1 150442Z 19011KT 01/M03 A304 RMK A01 T00131028  RH  074%=      5-min Rain = 0
KAD1 150443Z 19012KT 01/M03 A304 RMK A01 T00131028  RH  074%=      5-min Rain = 0
KAD1 150444Z 19011KT 01/M03 A304 RMK A01 T00121028  RH  074%=      5-min Rain = 0
KAD1 150445Z 19011KT 01/M03 A304 RMK A01 T00131028  RH  074%=      5-min Rain = 0
KAD1 150446Z 19012KT 01/M03 A304 RMK A01 T00131028  RH  074%=      5-min Rain = 0
KAD1 150447Z 19012KT 01/M03 A304 RMK A01 T00131027  RH  075%=      5-min Rain = 0
KAD1 150448Z 19012KT 01/M03 A304 RMK A01 T00121028  RH  075%=      5-min Rain = 0
KAD1 150449Z 19012KT 01/M03 A304 RMK A01 T00131027  RH  075%=      5-min Rain = 0
KAD1 150450Z 19012KT 01/M03 A304 RMK A01 T00131027  RH  075%=      5-min Rain = 0
KAD1 150451Z 19012KT 01/M03 A304 RMK A01 T00141027  RH  074%=      5-min Rain = 0
KAD1 150452Z 20012KT 02/M03 A304 RMK A01 T00151026  RH  074%=      5-min Rain = 0
KAD1 150453Z 19012KT 02/M03 A304 RMK A01 T00151026  RH  074%=      5-min Rain = 0
KAD1 150454Z 20013KT 02/M03 A304 RMK A01 T00161025  RH  074%=      5-min Rain = 0
KAD1 150455Z 19012KT 02/M02 A304 RMK A01 T00181024  RH  074%=      5-min Rain = 0
KAD1 150456Z 20012KT 02/M02 A304 RMK A01 T00191024  RH  073%=      5-min Rain = 0
KAD1 150457Z 20012KT 02/M02 A304 RMK A01 T00201024  RH  072%=      5-min Rain = 0
KAD1 150458Z 20012KT 02/M02 A304 RMK A01 T00201024  RH  072%=      5-min Rain = 0
KAD1 150459Z 20012KT 02/M02 A304 RMK A01 T00211024  RH  072%=      5-min Rain = 0
KAD1 150500Z 20012KT 02/M02 A304 RMK A01 T00221024  RH  072%=      5-min Rain = 0
KAD1 150501Z 20012KT 02/M02 A304 RMK A01 T00241023  RH  071%=      5-min Rain = 0
KAD1 150502Z 20012KT 03/M02 A304 RMK A01 T00251023  RH  070%=      5-min Rain = 0
KAD1 150503Z 20013KT 03/M02 A304 RMK A01 T00261023  RH  070%=      5-min Rain = 0
KAD1 150504Z 20013KT 03/M02 A304 RMK A01 T00281023  RH  069%=      5-min Rain = 0
KAD1 150505Z 20013KT 03/M02 A304 RMK A01 T00291023  RH  069%=      5-min Rain = 0
KAD1 150506Z 20012KT 03/M02 A304 RMK A01 T00291023  RH  069%=      5-min Rain = 0
KAD1 150507Z 20012KT 03/M02 A304 RMK A01 T00291023  RH  069%=      5-min Rain = 0
KAD1 150508Z 20012KT 03/M02 A304 RMK A01 T00281024  RH  069%=      5-min Rain = 0
KAD1 150509Z 20012KT 03/M02 A304 RMK A01 T00271024  RH  069%=      5-min Rain = 0
KAD1 150510Z 20012KT 03/M02 A304 RMK A01 T00271024  RH  069%=      5-min Rain = 0
KAD1 150511Z 20011KT 03/M02 A304 RMK A01 T00261024  RH  069%=      5-min Rain = 0
KAD1 150512Z 20012KT 03/M03 A304 RMK A01 T00261025  RH  069%=      5-min Rain = 0
KAD1 150513Z 20012KT 03/M03 A304 RMK A01 T00251026  RH  069%=      5-min Rain = 0
KAD1 150514Z 20012KT 02/M03 A3039 RMK A01 T00241026  RH  070%=      5-min Rain = 0
KAD1 150515Z 20012KT 02/M03 A3039 RMK A01 T00241026  RH  070%=      5-min Rain = 0
KAD1 150516Z 20012KT 02/M03 A3039 RMK A01 T00241026  RH  070%=      5-min Rain = 0
KAD1 150517Z 20012KT 02/M03 A3039 RMK A01 T00231026  RH  070%=      5-min Rain = 0
KAD1 150518Z 20012KT 02/M03 A3039 RMK A01 T00231026  RH  070%=      5-min Rain = 0
KAD1 150519Z 20013KT 02/M03 A3039 RMK A01 T00231026  RH  070%=      5-min Rain = 0
KAD1 150520Z 20013KT 02/M03 A3039 RMK A01 T00221026  RH  070%=      5-min Rain = 0
KAD1 150521Z 20012KT 02/M03 A3039 RMK A01 T00211026  RH  071%=      5-min Rain = 0
KAD1 150522Z 20012KT 02/M03 A3039 RMK A01 T00211027  RH  071%=      5-min Rain = 0
KAD1 150523Z 20013KT 02/M03 A3039 RMK A01 T00211027  RH  071%=      5-min Rain = 0
KAD1 150524Z 20013KT 02/M03 A3039 RMK A01 T00201027  RH  071%=      5-min Rain = 0
KAD1 150525Z 20013KT 02/M03 A3039 RMK A01 T00201027  RH  071%=      5-min Rain = 0
KAD1 150526Z 19013KT 02/M03 A3039 RMK A01 T00201027  RH  071%=      5-min Rain = 0
KAD1 150527Z 20013KT 02/M03 A3039 RMK A01 T00191027  RH  071%=      5-min Rain = 0
KAD1 150528Z 20013KT 02/M03 A3039 RMK A01 T00201027  RH  071%=      5-min Rain = 0
KAD1 150529Z 20012KT 02/M03 A3039 RMK A01 T00201027  RH  071%=      5-min Rain = 0
KAD1 150530Z 20013KT 02/M03 A3039 RMK A01 T00201027  RH  071%=      5-min Rain = 0
KAD1 150531Z 19013KT 02/M03 A3039 RMK A01 T00201028  RH  071%=      5-min Rain = 0
KAD1 150532Z 19012KT 02/M03 A3039 RMK A01 T00201028  RH  071%=      5-min Rain = 0
KAD1 150533Z 19012KT 02/M03 A3039 RMK A01 T00181029  RH  071%=      5-min Rain = 0
KAD1 150534Z 19013KT 02/M03 A3039 RMK A01 T00171029  RH  071%=      5-min Rain = 0
KAD1 150535Z 19013KT 02/M03 A3039 RMK A01 T00171029  RH  072%=      5-min Rain = 0
KAD1 150536Z 20012KT 02/M03 A3039 RMK A01 T00161029  RH  072%=      5-min Rain = 0
KAD1 150537Z 19013KT 02/M03 A3039 RMK A01 T00161029  RH  072%=      5-min Rain = 0
KAD1 150538Z 20014KT 02/M03 A3039 RMK A01 T00161029  RH  072%=      5-min Rain = 0
KAD1 150539Z 19013KT 02/M03 A3039 RMK A01 T00161029  RH  072%=      5-min Rain = 0
KAD1 150540Z 20013KT 02/M03 A3039 RMK A01 T00161029  RH  072%=      5-min Rain = 0
KAD1 150541Z 20013KT 02/M03 A3039 RMK A01 T00161029  RH  072%=      5-min Rain = 0
KAD1 150542Z 19013KT 02/M03 A3039 RMK A01 T00161029  RH  072%=      5-min Rain = 0
KAD1 150543Z 19014KT 02/M03 A3039 RMK A01 T00151029  RH  072%=      5-min Rain = 0
KAD1 150544Z 20013KT 02/M03 A3039 RMK A01 T00151029  RH  073%=      5-min Rain = 0
KAD1 150545Z 20013KT 02/M03 A3039 RMK A01 T00151029  RH  073%=      5-min Rain = 0
KAD1 150546Z 20012KT 02/M03 A3039 RMK A01 T00151029  RH  073%=      5-min Rain = 0
KAD1 150547Z 20014KT 02/M03 A3039 RMK A01 T00151029  RH  073%=      5-min Rain = 0
KAD1 150548Z 20013KT 02/M03 A3039 RMK A01 T00151029  RH  073%=      5-min Rain = 0
KAD1 150549Z 20013KT 02/M03 A3039 RMK A01 T00161028  RH  072%=      5-min Rain = 0
KAD1 150550Z 20013KT 02/M03 A3039 RMK A01 T00171028  RH  072%=      5-min Rain = 0
KAD1 150551Z 20013KT 02/M03 A3039 RMK A01 T00171028  RH  072%=      5-min Rain = 0
KAD1 150552Z 20013KT 02/M03 A3039 RMK A01 T00171028  RH  072%=      5-min Rain = 0
KAD1 150553Z 20013KT 02/M03 A3039 RMK A01 T00171028  RH  072%=      5-min Rain = 0
KAD1 150554Z 20013KT 02/M03 A3039 RMK A01 T00171028  RH  072%=      5-min Rain = 0
KAD1 150555Z 20013KT 02/M03 A3039 RMK A01 T00171028  RH  072%=      5-min Rain = 0
KAD1 150556Z 20014KT 02/M03 A3039 RMK A01 T00181027  RH  072%=      5-min Rain = 0
KAD1 150557Z 20013KT 02/M03 A3039 RMK A01 T00191027  RH  071%=      5-min Rain = 0
KAD1 150558Z 20013KT 02/M03 A3039 RMK A01 T00201027  RH  071%=      5-min Rain = 0
KAD1 150559Z 20013KT 02/M03 A3039 RMK A01 T00211027  RH  070%=      5-min Rain = 0

Page generated in 0.121 seconds.